GFSSGP_925_rhum_000.txt.gz
RH
3 9 14 13 18 14 13 17 19 23 23 19 21 21 30 37 45 60 38 44 56 70 76 80 78 80 81 79 79 79 81 83 85 85 83 80 77 72 70 67 64 60 53 78 93 95 70 67 82
8 18 11 14 18 16 15 17 19 22 19 15 16 17 26 38 33 35 37 46 57 66 78 88 77 81 83 84 83 79 76 77 78 80 80 78 76 72 71 66 50 48 56 80 72 82 81 75 76
10 15 12 16 14 13 18 18 24 19 16 16 18 24 27 32 29 32 38 45 60 78 85 76 80 83 87 91 88 85 76 70 73 77 82 80 81 78 66 52 52 56 63 67 68 66 66 65 66
16 10 10 12 12 12 14 20 19 19 20 18 17 30 25 26 30 32 38 42 46 73 69 79 81 87 90 91 93 93 90 86 79 75 76 73 68 61 58 56 51 42 36 41 50 57 59 60 62
15 12 13 13 14 14 16 16 16 19 19 17 16 31 36 34 30 30 32 36 40 60 59 66 71 75 79 79 78 81 82 75 65 59 56 54 57 55 51 48 38 29 32 35 39 43 41 41 44
12 10 15 14 16 15 15 14 15 19 16 15 17 27 36 33 31 30 29 30 37 51 52 48 49 47 47 53 59 61 60 60 58 54 54 56 56 54 53 49 42 32 31 33 34 33 31 30 31
16 15 15 16 17 17 17 14 12 11 13 14 14 28 31 30 34 29 27 28 37 41 45 53 40 36 40 45 50 52 53 53 50 50 51 50 52 54 50 46 36 34 33 37 38 34 29 25 21
10 11 13 17 16 16 12 10 9 10 15 10 11 24 31 33 34 30 26 26 32 38 42 48 49 56 62 45 45 47 45 46 46 54 56 65 73 67 64 58 50 45 33 42 46 47 39 35 37
6 10 14 12 11 10 8 7 6 6 12 11 15 16 25 33 33 30 27 26 29 35 40 42 46 48 59 53 43 54 42 53 64 69 64 68 72 70 71 59 61 60 59 57 59 58 57 54 57
7 10 8 5 6 6 6 6 5 7 11 11 14 19 32 34 33 30 28 25 30 36 39 46 48 51 44 43 51 57 55 66 67 67 65 66 61 61 58 62 64 64 64 60 66 61 60 65 63
6 8 6 5 6 4 5 5 4 7 9 8 13 14 29 34 33 29 25 24 30 35 37 53 54 52 49 40 45 47 51 50 60 66 66 62 57 58 57 54 59 56 56 62 56 61 57 62 62
7 6 5 5 4 4 4 4 5 6 7 7 10 12 26 27 28 28 25 24 27 32 35 53 56 56 51 49 43 44 44 46 48 51 60 58 55 54 51 48 44 42 40 42 48 50 51 50 52
7 6 6 5 5 6 7 6 7 6 6 7 8 15 22 26 27 27 26 25 26 31 34 44 52 51 53 40 48 50 47 51 42 49 50 53 56 52 48 44 41 39 38 38 41 43 45 47 42
6 6 6 6 8 8 8 8 9 8 6 7 9 14 19 24 25 26 26 25 26 28 34 44 52 48 42 43 50 53 51 44 43 41 42 48 50 48 45 44 43 41 39 40 40 43 47 51 50
7 9 9 10 10 10 9 11 10 9 8 8 8 10 13 18 19 22 23 25 25 24 26 47 70 56 38 40 49 48 38 37 37 37 39 43 45 46 47 48 45 44 42 42 42 43 42 42 45
9 9 12 10 10 11 11 14 9 9 9 9 9 9 10 14 16 19 23 24 24 26 27 59 62 44 38 41 41 38 41 40 40 38 36 40 44 43 44 45 44 43 44 44 45 44 44 44 41
11 12 12 14 9 11 11 13 10 9 10 11 10 10 10 11 16 17 20 22 24 24 25 40 49 39 35 41 40 41 40 40 36 32 34 38 38 40 43 44 44 44 44 46 47 47 46 47 46
14 11 9 9 12 9 9 10 11 10 11 12 11 10 11 11 13 17 18 20 23 24 25 31 44 32 32 38 42 36 35 33 32 34 36 40 40 43 41 42 42 41 44 43 43 45 43 42 44
10 9 9 12 12 12 11 12 12 12 11 13 13 14 14 22 28 29 29 28 28 30 28 37 41 35 33 36 32 34 36 33 35 36 36 34 36 40 40 39 41 38 39 40 39 38 39 40 43
11 12 12 12 12 12 13 12 13 14 15 15 15 18 23 25 25 27 29 34 37 37 40 42 39 34 31 33 34 34 35 36 33 37 36 37 38 39 38 35 35 40 41 42 42 43 42 36 36
14 15 22 19 15 13 13 15 16 15 15 16 18 18 20 23 26 28 33 37 36 35 33 35 37 39 36 32 34 35 35 35 38 40 41 42 44 44 35 34 35 38 42 42 40 41 41 55 48
19 20 20 18 18 19 12 20 18 17 19 20 21 22 21 20 21 24 33 38 39 38 37 37 36 34 36 33 36 39 40 43 45 49 52 50 42 37 37 36 37 38 44 42 46 49 49 50 54
24 21 20 20 20 18 16 20 22 17 21 23 24 23 24 26 27 30 32 37 41 42 40 38 37 37 39 41 43 45 50 55 53 46 43 39 41 39 36 37 37 42 44 46 49 49 48 59 68
20 22 21 21 23 42 19 22 37 23 23 24 25 26 26 26 28 28 32 36 40 41 41 38 36 35 40 44 45 46 43 44 42 42 42 44 41 40 41 41 43 49 52 52 55 62 63 69 70
19 23 42 52 53 49 24 22 32 24 23 23 26 26 29 30 31 29 29 32 36 37 38 38 39 37 35 36 38 39 40 42 43 44 47 46 44 46 45 45 46 50 51 54 54 54 72 78 79
24 25 52 54 59 40 20 20 31 24 23 23 24 24 26 30 31 31 30 32 34 35 36 39 42 41 39 39 41 40 42 43 46 47 45 45 46 46 44 50 50 52 54 54 58 62 71 76 78
28 34 22 41 50 54 23 28 26 23 24 23 24 24 25 27 29 28 28 31 33 35 34 37 40 43 40 41 42 42 44 47 47 44 43 43 46 52 53 56 63 61 65 72 79 82 80 79 83
24 21 37 44 60 51 28 26 43 30 26 23 23 23 24 26 27 32 29 30 32 35 38 40 41 46 46 43 42 46 48 46 45 44 42 49 55 55 58 65 73 76 75 80 85 90 88 80 80
28 30 28 24 41 52 52 31 21 25 24 25 25 24 27 29 30 30 32 35 37 40 40 45 49 51 50 48 48 48 46 44 44 44 53 55 60 61 63 64 67 71 75 84 72 64 72 79 70
24 27 26 60 48 63 66 48 22 24 29 28 28 29 30 34 35 34 38 41 40 44 48 49 56 56 54 56 53 49 44 43 44 52 53 51 56 60 59 57 59 62 63 64 70 72 75 76 79

GFSSGP_925_rhum_003.txt.gz
RH
3 4 18 18 24 24 22 21 26 30 27 22 32 42 51 49 55 79 70 66 76 78 80 79 80 79 77 77 79 83 84 85 84 83 81 78 76 74 72 64 49 43 40 41 49 58 78 70 67
3 14 20 20 26 26 30 27 30 26 20 27 30 35 45 57 44 53 70 69 70 78 77 81 80 80 82 80 78 78 80 81 80 80 81 82 84 80 66 52 47 38 34 37 42 52 59 60 63
7 15 18 22 24 25 37 27 25 20 20 20 33 35 38 48 41 50 69 81 80 73 73 79 82 89 90 86 81 75 71 72 77 85 83 81 76 63 52 48 36 25 28 33 37 44 50 51 51
14 16 14 17 18 19 30 27 23 25 22 27 30 50 36 33 38 53 68 73 73 78 75 81 85 91 93 90 87 85 84 78 73 72 64 61 56 51 50 47 30 25 27 29 30 32 33 33 31
25 20 19 19 21 33 23 21 22 27 25 30 41 51 45 35 40 47 64 64 58 82 76 82 90 90 87 87 94 86 77 66 59 53 50 51 52 52 52 49 35 25 24 26 24 23 23 24 22
19 16 20 21 20 21 19 17 21 27 22 26 45 48 46 32 33 39 49 46 38 52 66 69 70 67 65 64 61 56 53 51 48 46 44 43 44 47 45 40 25 23 23 24 22 21 20 19 18
19 21 20 25 22 23 17 12 12 22 18 29 36 49 44 35 30 33 43 44 45 38 38 44 39 39 41 45 47 46 43 40 41 42 41 45 61 52 46 38 42 41 23 33 34 36 31 29 27
16 18 15 19 22 18 12 11 10 15 15 14 29 43 55 36 27 29 33 41 43 44 46 44 52 50 42 39 43 39 39 38 42 49 53 67 70 66 57 54 57 54 54 55 52 51 51 50 50
11 14 17 14 20 13 9 9 6 10 13 17 24 34 39 30 26 26 33 36 44 46 44 52 61 62 51 39 42 31 46 55 62 62 69 70 69 65 59 62 62 57 59 59 58 55 57 58 57
11 16 12 8 9 10 8 8 7 11 13 17 40 35 34 31 28 27 27 31 37 41 50 53 52 58 57 48 46 48 61 62 67 66 72 68 64 60 62 61 61 55 57 58 55 54 56 58 60
9 11 7 7 6 7 7 7 7 14 15 15 42 40 37 35 32 30 26 29 35 36 46 48 49 43 51 47 49 53 62 65 68 67 64 64 60 67 59 54 48 43 46 48 50 52 53 54 55
8 7 7 6 6 6 6 6 5 7 10 12 21 37 37 40 38 30 28 27 34 35 49 51 46 49 48 39 49 54 57 61 63 61 62 60 58 53 46 44 40 42 39 40 46 52 47 48 51
8 8 7 6 6 9 7 7 7 7 9 10 14 33 39 38 34 29 25 24 31 38 51 48 43 38 45 48 50 49 52 50 49 54 55 45 54 49 46 44 43 42 41 40 40 40 41 44 46
8 8 7 6 8 8 9 8 10 10 8 8 17 32 33 33 31 28 26 26 27 35 51 53 52 52 45 45 50 50 50 44 44 49 42 38 41 48 45 44 42 42 44 45 43 41 41 44 46
9 10 10 10 12 12 10 13 13 10 8 8 11 17 30 32 31 31 27 26 26 32 59 58 65 60 45 47 46 56 42 38 38 37 37 39 43 45 46 46 46 42 42 43 43 42 44 44 42
9 13 17 13 14 13 13 18 13 12 11 12 12 12 12 28 30 29 27 25 24 35 49 55 51 49 51 46 43 42 41 38 40 39 43 45 40 42 42 38 33 42 44 43 42 41 44 46 49
14 19 19 16 14 16 15 16 14 13 13 14 14 13 13 16 26 26 25 24 23 25 37 58 54 52 45 40 42 41 41 37 38 38 38 38 37 40 37 36 37 38 40 39 44 45 40 37 34
20 19 20 21 13 10 11 14 15 13 14 16 15 27 31 41 42 37 31 28 26 29 39 52 50 42 38 40 39 39 36 35 35 35 34 32 37 36 37 38 39 38 37 37 37 38 38 39 37
14 15 21 18 13 13 14 19 19 21 22 26 37 40 39 39 39 46 39 36 40 47 48 51 45 35 41 37 35 34 33 34 36 35 33 32 32 34 38 40 38 39 39 36 35 34 30 31 35
13 19 26 17 14 13 14 19 22 22 26 28 35 36 38 40 42 43 40 38 41 37 36 38 38 34 35 36 35 33 33 32 30 30 34 40 45 45 40 37 38 36 38 35 36 32 42 43 40
23 27 26 23 19 16 16 23 25 24 24 24 27 30 34 39 45 45 46 40 38 37 37 35 33 32 34 33 31 30 32 34 40 45 47 43 42 41 39 37 37 36 44 42 38 41 42 45 44
32 27 25 23 25 29 18 36 27 28 31 30 31 35 37 40 44 45 47 43 41 39 37 35 33 30 30 33 34 39 49 53 51 43 41 47 41 38 37 39 39 39 44 46 47 46 51 55 62
30 23 25 24 28 26 26 38 28 28 36 35 35 35 40 43 45 50 46 43 42 40 38 37 36 36 36 35 38 43 47 40 42 46 49 42 40 34 36 40 40 41 47 48 49 52 56 60 65
22 28 31 29 35 57 34 41 53 48 36 36 37 38 39 41 43 43 42 42 41 38 36 35 34 34 34 35 42 42 38 41 49 43 42 41 37 39 40 40 45 47 51 49 55 50 60 68 69
28 38 70 64 78 66 40 40 61 37 31 35 42 44 44 44 43 44 44 43 39 37 36 37 39 38 36 37 40 37 44 42 44 43 41 39 42 41 41 48 48 52 53 54 57 61 70 80 79
34 35 68 62 82 57 26 45 45 32 31 32 32 37 40 40 41 42 36 37 36 35 35 39 38 39 39 39 41 40 44 45 46 47 43 40 40 48 54 55 59 62 68 71 74 78 81 79 78
34 43 24 57 64 68 45 38 32 30 31 30 28 26 40 43 42 36 35 36 40 40 39 40 41 43 39 37 38 43 47 55 65 58 42 48 55 56 60 62 67 62 57 61 64 67 69 71 79
29 23 53 63 61 61 45 49 61 44 41 30 30 37 38 40 43 45 43 44 41 44 47 46 48 49 47 46 50 53 52 58 59 53 55 56 54 49 51 54 55 57 61 64 64 64 57 58 67
37 39 36 38 62 74 81 52 39 41 39 40 40 43 47 47 48 50 45 43 44 44 43 43 44 46 51 52 50 50 48 46 46 51 54 53 49 45 52 57 52 47 44 43 44 46 50 56 68
26 34 42 76 63 83 86 62 40 40 37 37 39 43 45 45 48 48 46 43 40 39 38 38 41 47 50 50 54 56 50 45 44 48 50 47 46 47 51 44 39 36 36 35 41 48 58 60 56

GFSSGP_925_rhum_006.txt.gz
RH
6 4 16 18 22 26 26 22 29 39 42 44 42 53 61 58 57 79 84 82 80 86 83 80 79 78 76 77 80 80 81 84 84 82 78 76 75 67 53 44 34 22 22 31 38 48 54 60 64
4 17 19 22 27 29 31 28 43 43 37 38 41 48 60 80 74 90 90 85 81 83 83 81 77 77 79 82 84 84 85 85 81 78 78 74 64 53 44 37 24 16 25 29 33 39 42 46 46
8 16 17 22 27 28 35 27 27 33 33 33 42 42 46 66 70 76 79 80 78 82 83 82 82 81 79 77 76 76 75 77 76 70 61 59 51 46 44 37 20 21 24 26 27 28 28 26 27
16 17 15 18 21 18 28 29 26 35 36 36 41 48 40 45 59 79 87 79 77 85 84 84 86 86 83 78 73 73 75 72 65 54 50 49 49 46 42 37 22 18 19 20 20 20 20 21 22
26 19 20 20 19 27 26 24 25 27 44 43 39 49 50 66 71 77 77 71 77 88 85 88 92 89 88 88 86 78 69 58 49 45 50 50 45 38 37 33 20 18 20 21 20 21 20 20 20
20 17 20 23 29 21 19 23 26 44 45 42 44 48 48 72 82 82 73 72 79 93 92 94 90 85 78 73 66 55 47 44 43 45 45 38 36 30 28 24 31 29 20 29 34 34 28 27 25
20 21 20 27 35 24 15 15 24 34 44 48 40 51 45 56 77 57 61 64 72 80 81 79 70 64 55 50 43 42 41 39 40 39 36 46 46 40 42 46 53 51 51 51 47 49 51 47 44
18 18 16 19 32 18 12 10 16 22 32 38 37 55 49 39 63 57 58 54 51 48 47 49 44 36 36 40 40 38 36 40 42 44 58 55 57 53 58 58 57 53 57 54 53 52 55 52 51
13 19 19 14 18 16 11 11 9 15 25 28 30 43 34 41 51 58 64 61 47 46 43 53 51 41 28 33 34 37 42 52 56 65 69 65 56 57 61 64 62 59 60 58 56 53 53 54 53
17 17 15 12 13 12 9 8 8 17 39 49 50 40 36 35 39 43 51 62 64 66 56 58 54 49 44 42 36 52 52 56 59 67 67 66 62 64 65 66 57 51 53 48 51 51 54 52 50
12 12 8 8 10 8 8 8 8 17 32 46 50 44 37 32 31 38 39 49 51 56 58 58 53 56 49 47 48 54 57 60 59 63 62 66 67 67 57 53 41 40 41 40 44 50 50 48 49
8 8 6 6 7 7 8 8 8 13 14 39 39 37 35 38 35 31 32 38 49 54 54 51 48 56 54 51 51 55 62 67 66 64 65 61 60 54 44 42 41 42 41 41 40 40 41 42 43
10 8 7 8 10 9 7 6 7 10 16 38 37 38 40 38 36 29 27 30 43 51 52 52 49 53 52 48 54 56 58 60 64 64 61 48 50 47 46 46 46 46 46 46 45 44 44 43 44
9 8 7 7 10 9 9 9 10 9 17 42 40 43 42 40 36 34 31 29 41 49 55 53 38 46 48 51 51 54 54 50 57 51 50 38 38 48 48 48 47 42 45 47 47 47 45 41 46
10 9 9 8 11 10 12 13 12 11 15 41 43 43 42 40 37 35 30 27 36 53 53 48 48 53 44 50 53 52 45 46 46 49 46 47 47 49 49 40 34 34 37 42 41 40 45 46 39
11 15 15 13 14 12 11 16 14 11 11 18 35 40 40 41 36 32 29 30 34 57 58 52 38 34 50 48 49 55 38 40 41 44 48 42 41 42 40 36 34 33 34 35 38 38 39 37 37
20 17 18 16 16 14 14 17 15 14 12 12 15 31 41 45 46 38 34 33 44 56 58 55 45 52 48 46 46 42 42 43 39 39 37 36 35 33 33 34 36 38 39 38 37 36 36 33 32
19 20 21 19 16 17 17 18 18 19 32 45 51 51 54 52 53 55 52 40 64 72 70 59 51 55 50 48 47 46 43 37 35 34 33 36 38 38 40 42 38 40 41 38 36 35 33 33 38
16 19 24 19 15 13 23 31 30 41 47 47 50 56 54 52 48 54 56 60 69 72 69 64 60 59 46 41 40 38 36 35 36 38 38 40 42 42 43 40 42 41 42 41 40 41 41 36 35
21 25 26 20 17 15 26 31 35 40 44 44 49 53 54 52 48 50 49 44 44 43 42 41 44 44 42 43 38 35 36 37 40 44 46 45 43 41 40 39 38 40 42 41 42 43 47 49 48
34 30 25 23 20 20 26 32 38 34 36 37 42 49 52 53 54 52 50 40 36 36 35 34 36 36 36 34 33 34 34 38 42 44 45 45 42 39 38 37 36 38 42 46 45 45 47 59 62
36 27 26 24 27 23 21 44 33 40 42 43 49 54 54 54 53 51 50 44 39 38 36 34 33 32 32 32 32 33 40 47 45 44 49 46 40 37 38 39 40 44 50 51 54 53 53 53 64
31 24 25 25 31 31 28 44 38 38 44 46 51 53 58 56 56 58 51 42 40 38 35 33 34 34 34 34 36 39 44 40 43 51 46 42 38 36 38 40 44 47 48 51 56 63 75 77 77
22 28 40 39 44 58 38 49 52 49 42 43 46 50 52 56 57 52 45 42 39 37 36 35 36 37 36 37 39 42 41 44 51 44 42 42 42 39 44 48 50 52 54 56 64 68 77 81 81
31 48 69 63 73 65 43 59 54 40 37 45 52 51 50 53 59 57 49 42 37 36 38 38 38 40 40 39 44 47 48 46 44 55 59 51 44 46 57 55 58 62 67 69 70 69 64 63 69
32 43 67 64 72 54 41 56 48 39 44 43 41 47 47 49 53 56 49 47 46 49 48 46 47 44 46 46 46 47 49 54 60 61 63 60 59 58 62 57 58 57 50 49 52 57 57 52 49
34 38 34 59 68 64 56 42 34 34 35 32 32 38 48 52 52 52 52 51 50 49 49 48 47 46 43 42 46 49 49 52 52 51 59 59 56 54 43 40 41 51 53 47 46 43 42 46 50
24 27 52 65 56 64 54 52 56 47 42 40 50 55 56 56 55 55 52 51 47 41 39 40 46 49 51 50 51 48 51 50 49 49 52 55 54 49 42 37 44 47 41 37 36 38 39 48 57
40 41 45 50 67 72 79 58 44 49 47 53 55 54 56 59 60 59 52 46 40 39 39 40 38 44 42 40 45 49 53 54 50 56 56 54 52 54 43 45 45 37 34 36 36 39 42 53 59
28 37 49 70 58 86 85 61 37 45 47 50 51 53 54 58 59 57 51 44 41 40 32 24 25 26 26 28 42 55 58 56 50 57 57 64 54 48 43 39 36 32 33 35 37 39 47 54 50

GFSSGP_925_rhum_009.txt.gz
RH
8 6 18 17 23 28 28 23 42 47 56 52 61 56 76 82 73 79 83 93 86 88 87 82 80 79 77 75 75 74 76 81 81 78 74 70 57 46 39 27 16 20 38 31 32 41 49 51 55
5 18 19 24 28 27 34 38 52 50 49 43 46 53 69 87 88 96 94 98 90 88 84 82 79 79 79 79 80 83 86 85 79 76 70 57 47 40 36 24 17 20 22 25 26 28 30 32 34
7 19 18 23 30 30 34 41 46 44 42 37 45 42 57 86 86 89 90 95 93 87 82 81 77 79 82 84 86 88 87 78 75 69 55 47 43 41 36 25 16 20 22 23 22 22 23 25 26
12 19 16 20 23 21 26 29 37 38 38 40 45 53 44 66 78 82 92 94 86 88 84 81 80 81 81 81 78 73 74 73 60 49 43 44 44 39 37 26 17 19 21 21 21 21 21 22 21
24 21 20 20 18 22 23 27 35 40 45 44 42 51 61 84 79 86 96 94 88 90 88 87 84 80 76 72 74 76 68 54 45 38 38 39 38 38 30 18 19 19 20 32 34 38 34 32 28
21 20 23 22 28 28 21 26 43 47 46 48 54 55 59 80 87 99 98 99 96 94 96 91 86 82 82 82 72 59 50 43 38 36 37 38 34 29 31 46 46 42 49 46 48 48 48 45 43
20 21 20 22 38 25 24 19 46 46 47 48 44 59 66 87 78 99 97 99 98 99 93 93 92 84 74 63 54 48 42 35 35 35 43 48 40 44 51 55 51 51 52 50 49 46 45 46 46
21 20 18 29 36 41 18 14 28 43 46 40 40 60 84 67 98 97 100 100 100 98 93 83 70 64 55 50 44 39 33 36 42 48 58 56 54 58 59 60 58 56 56 52 50 48 44 44 44
16 24 22 16 25 30 25 14 14 24 45 37 39 45 60 87 90 93 100 100 98 82 63 49 48 44 44 44 38 35 38 46 52 64 62 57 57 61 63 63 61 56 52 50 51 50 49 44 43
22 26 20 13 18 19 11 21 24 35 45 54 49 44 65 76 85 93 96 98 89 72 58 46 42 34 37 33 34 44 54 57 64 68 62 60 63 65 64 59 55 54 51 47 46 49 51 49 47
16 15 9 8 12 10 10 11 14 44 46 52 49 50 57 70 71 70 72 63 54 50 56 54 49 39 39 34 48 53 58 60 58 62 61 64 66 63 54 49 42 44 46 45 44 45 50 51 50
14 11 8 8 10 8 9 9 18 17 38 46 39 42 46 50 53 56 61 61 61 57 55 59 56 48 47 46 52 55 55 57 58 58 56 57 59 54 44 44 44 47 49 49 50 46 47 48 49
10 8 7 11 9 8 7 8 10 11 28 44 38 36 40 41 42 45 46 49 54 61 60 58 57 53 53 54 53 57 59 60 62 63 54 44 48 45 45 48 49 48 44 44 44 45 45 44 42
11 8 8 10 11 9 8 10 10 13 50 47 40 37 36 36 35 37 41 47 53 56 56 55 55 57 55 51 55 56 59 59 63 63 61 58 54 54 53 52 42 34 31 31 32 35 40 43 42
10 10 9 8 11 10 12 13 12 16 48 48 43 41 43 39 35 34 34 40 49 54 55 55 56 59 54 54 55 55 58 52 58 64 69 59 53 54 50 39 36 34 34 35 36 38 38 38 37
13 15 15 12 13 14 11 14 13 19 52 53 51 48 49 48 48 41 37 33 45 55 56 66 64 60 60 61 58 58 53 50 56 61 51 48 45 42 40 38 38 39 38 40 40 38 37 35 33
20 18 16 16 16 15 14 18 17 15 38 37 52 60 54 60 62 55 39 37 35 57 70 74 73 62 71 65 63 58 49 44 48 43 40 40 39 38 38 40 40 40 42 43 40 38 40 39 38
16 18 18 18 16 18 16 25 38 46 49 64 70 63 64 69 75 74 57 66 66 72 80 72 81 79 68 62 52 47 45 41 39 40 40 39 40 41 43 42 42 43 42 41 40 41 40 40 44
16 20 21 22 16 33 40 49 60 58 62 67 63 63 63 65 62 66 73 84 81 79 78 72 78 59 55 44 48 50 40 41 42 44 46 45 44 40 38 39 38 38 38 39 40 41 42 44 51
24 24 26 23 24 35 46 50 51 51 59 64 62 60 60 59 56 56 53 60 61 62 59 54 54 46 50 49 41 40 40 42 49 48 46 45 42 40 39 37 35 33 34 38 43 49 51 52 54
34 28 25 26 31 34 39 47 43 40 49 55 61 62 58 59 63 59 50 46 48 47 39 38 38 39 40 41 33 36 39 44 48 45 44 43 40 38 37 36 36 41 46 48 51 58 66 71 67
34 28 25 28 36 44 32 64 41 46 56 60 62 63 64 58 57 53 48 42 37 35 32 30 31 32 32 32 33 33 34 41 49 49 46 42 39 38 39 42 43 45 48 48 49 57 66 68 91
31 26 26 26 34 34 36 54 49 48 60 62 62 61 58 56 58 58 49 40 37 35 35 34 35 35 35 35 37 40 44 49 54 48 43 52 46 46 48 56 56 48 51 54 54 58 66 74 76
24 34 44 50 47 58 39 52 56 56 53 56 53 56 56 62 63 57 48 44 43 45 42 40 41 43 40 41 43 46 52 53 47 55 56 58 56 60 64 62 55 55 53 51 61 67 62 55 59
35 45 65 60 72 67 47 55 59 44 44 49 54 58 60 64 64 60 54 53 50 46 45 46 45 46 48 47 48 49 48 45 46 45 50 50 48 61 62 61 60 45 46 52 48 48 49 48 42
36 44 68 58 75 53 46 58 52 44 48 47 49 53 56 63 61 62 60 57 52 47 45 43 43 44 44 44 45 45 46 47 48 51 49 47 48 62 64 63 41 44 49 48 43 39 36 39 44
34 43 39 69 72 68 62 45 39 44 52 46 50 53 62 61 62 64 60 55 50 46 47 49 49 49 49 47 49 49 51 52 54 55 53 56 61 65 60 55 71 62 55 41 38 36 36 41 45
29 35 51 67 56 65 60 56 63 48 50 44 52 64 66 64 63 66 60 49 42 41 44 44 50 50 38 38 42 50 58 61 61 57 53 60 61 56 55 72 78 57 41 34 34 36 37 38 38
41 41 51 58 70 71 81 69 47 50 49 60 68 66 64 67 66 65 55 45 43 40 34 34 29 26 25 25 25 25 27 26 33 54 58 58 58 58 62 63 61 59 40 33 34 34 34 38 51
31 40 47 65 58 87 84 62 44 54 57 59 62 65 68 66 64 57 50 46 42 27 27 25 26 25 26 26 25 27 31 32 36 56 69 64 66 63 60 67 70 51 33 30 32 35 43 53 58

GFSSGP_925_rhum_015.txt.gz
RH
18 10 15 22 16 19 21 20 36 53 64 58 58 60 68 67 64 74 96 90 79 97 98 82 74 68 64 64 63 68 72 70 66 57 45 37 32 24 25 30 50 74 74 56 38 25 23 22 23
10 14 21 22 17 18 24 30 52 50 56 55 50 49 61 76 73 97 93 99 86 92 97 87 76 69 68 67 68 74 75 70 63 52 43 39 33 24 25 28 30 31 39 31 22 20 19 18 20
11 22 18 20 24 18 29 47 48 45 44 44 70 64 66 70 84 95 94 99 84 87 89 84 78 73 72 71 74 78 72 67 58 45 42 41 33 23 22 23 24 27 34 37 35 31 24 25 36
18 18 16 19 20 20 28 45 47 47 45 39 48 63 71 73 85 78 99 99 85 86 87 85 78 77 75 76 80 73 68 62 50 45 45 39 34 23 22 22 33 43 42 41 39 37 36 36 31
21 17 18 19 18 18 18 40 48 44 43 36 39 56 68 97 81 99 98 94 86 89 86 84 81 79 80 83 74 67 66 61 47 45 45 40 29 23 32 37 47 43 41 42 41 39 37 38 41
20 18 19 18 31 27 32 37 38 45 39 44 52 58 82 99 100 100 96 89 87 86 89 90 85 84 82 74 70 71 64 48 41 46 40 36 32 49 48 51 50 47 46 45 44 43 42 42 42
20 18 18 27 35 32 30 38 42 40 44 48 51 79 92 96 99 100 95 98 100 98 95 94 90 84 76 71 74 71 56 42 43 42 40 33 50 54 52 53 52 49 48 45 43 42 40 41 42
19 18 27 36 35 48 32 34 57 47 48 42 51 76 95 91 100 100 99 99 100 95 96 93 91 85 77 83 79 60 48 43 42 49 44 45 54 57 55 51 50 47 45 44 43 43 43 42 42
18 19 31 35 35 48 38 29 28 38 44 44 45 66 75 98 100 99 99 99 96 95 96 99 92 84 86 79 67 54 46 44 45 56 54 56 58 59 56 52 49 46 43 42 44 46 48 47 46
20 22 20 22 31 36 33 27 33 45 46 50 83 90 92 99 96 95 96 94 97 98 98 98 100 93 85 75 60 53 48 47 55 58 56 60 63 63 59 55 50 46 44 44 46 47 48 50 48
22 20 17 14 27 26 25 25 31 44 47 44 71 91 87 92 89 86 86 87 86 96 99 99 99 83 70 61 56 50 50 56 65 64 62 63 65 65 55 49 46 47 50 49 48 48 49 47 45
17 17 11 9 25 27 26 20 38 38 34 38 65 84 87 85 85 84 82 82 89 98 95 85 74 70 67 60 55 53 55 62 69 71 69 70 71 61 50 47 50 51 49 44 41 41 40 40 40
19 16 11 10 17 17 15 21 32 29 43 49 71 80 84 88 91 85 81 83 87 85 75 78 72 66 59 61 57 59 68 74 77 76 75 73 70 60 52 55 54 46 39 38 37 38 39 40 38
16 10 10 12 11 10 14 11 18 26 46 60 72 75 75 73 74 68 65 64 69 72 69 72 69 62 61 62 62 65 76 81 66 77 72 84 75 65 60 56 44 39 39 38 39 40 41 39 37
11 10 11 13 10 10 12 13 18 41 44 59 69 66 64 59 58 56 54 59 64 68 75 74 71 70 70 78 78 75 72 84 84 82 92 80 70 65 54 42 40 39 38 40 40 41 40 40 43
12 16 13 12 14 15 10 13 33 40 46 51 55 53 52 49 49 52 51 48 57 70 83 77 83 84 74 66 65 75 82 79 78 80 71 64 52 47 44 40 39 40 41 41 40 39 48 51 49
19 16 17 15 22 15 16 25 46 46 51 54 50 51 49 54 60 77 72 52 65 70 73 89 88 76 69 69 72 84 69 65 60 55 49 45 43 41 41 40 40 42 40 39 38 40 44 52 47
17 17 17 17 23 32 38 54 56 57 53 58 56 59 60 60 66 88 93 85 91 95 95 89 86 80 74 76 77 62 49 47 47 46 44 43 42 41 40 38 38 37 35 35 34 36 52 54 54
16 17 18 24 35 49 60 58 59 60 59 60 60 61 62 63 77 88 95 93 92 91 89 87 85 82 74 61 53 53 51 50 45 44 44 44 42 40 38 37 36 36 38 39 38 38 42 44 60
24 26 33 36 41 46 50 58 58 57 63 62 61 63 62 67 71 81 86 89 89 83 79 79 78 69 57 55 53 50 48 48 47 46 45 42 41 40 39 40 47 51 49 45 42 46 50 57 72
33 29 31 36 44 43 44 50 59 59 61 63 63 61 63 67 72 72 78 85 91 91 78 58 55 54 53 50 43 43 48 55 57 52 46 43 43 46 44 46 51 58 57 66 62 74 71 58 66
35 30 38 45 37 38 37 30 55 62 65 64 62 62 62 61 58 58 61 65 67 63 58 54 51 48 44 42 42 44 54 59 61 48 44 47 50 51 50 51 57 64 60 65 72 73 68 59 50
35 33 33 31 32 34 40 37 48 61 66 63 59 59 58 53 49 45 47 50 49 44 43 43 43 44 45 45 46 48 50 49 48 47 50 52 55 54 57 57 61 66 60 59 56 61 57 54 49
39 37 40 44 40 41 38 36 43 63 58 57 56 57 55 50 48 48 51 52 55 50 49 48 47 47 46 45 43 42 45 47 52 58 62 64 57 55 52 57 66 64 61 62 63 46 56 52 54
34 38 48 51 57 47 47 47 36 41 47 49 54 52 53 51 52 52 51 54 60 62 54 49 48 50 47 47 46 46 49 53 59 64 63 56 58 66 72 65 70 71 55 55 53 49 30 54 50
40 38 55 57 60 49 46 54 37 41 38 44 45 48 54 54 57 54 57 56 57 58 55 54 54 55 44 39 33 30 31 34 26 20 25 39 49 56 53 72 75 66 72 70 78 61 63 62 59
39 37 42 60 63 56 46 43 38 49 44 50 52 53 54 55 57 56 57 58 57 56 53 45 48 37 26 23 23 22 21 21 20 19 20 22 21 44 64 77 80 67 71 65 74 71 69 62 56
33 38 43 48 52 50 43 52 41 55 48 50 54 53 55 58 59 57 58 61 62 60 52 38 28 25 25 24 23 22 23 22 22 22 24 28 32 56 83 81 81 72 76 70 72 67 66 70 59
40 43 52 47 55 43 49 35 45 45 45 48 48 51 57 59 60 57 54 57 58 62 48 28 28 27 26 24 23 24 24 25 26 28 32 40 41 55 79 83 82 82 73 68 89 70 47 55 59
36 41 42 48 46 66 64 40 38 47 45 49 49 56 58 58 58 51 51 50 49 42 35 29 28 33 29 24 25 27 27 29 32 37 42 45 54 60 70 78 78 83 91 91 70 46 37 58 61

GFSSGP_925_rhum_018.txt.gz
RH
32 20 14 15 15 13 16 16 25 46 51 44 45 46 54 50 60 68 75 72 74 81 81 83 63 62 61 62 65 69 69 68 65 52 41 33 24 24 29 36 45 59 65 58 29 20 17 17 17
14 13 16 12 16 17 15 14 27 42 41 39 38 43 48 54 59 76 77 83 81 85 78 78 66 64 63 63 68 72 71 69 59 44 36 30 24 24 32 38 37 37 34 28 22 19 23 32 34
13 17 11 11 12 15 16 27 35 35 34 30 44 49 59 60 54 69 88 89 87 88 77 82 70 66 64 65 72 74 70 62 49 41 39 32 25 26 27 26 35 44 40 38 35 34 35 29 24
11 12 11 12 13 12 21 31 32 33 32 32 38 67 55 65 50 78 91 91 95 93 85 84 74 70 68 70 74 76 69 58 46 43 44 35 23 23 24 42 42 40 38 38 37 36 36 39 33
12 10 12 12 12 11 20 30 33 32 27 29 30 48 51 60 72 81 86 87 89 87 89 86 78 74 72 74 82 77 66 57 48 49 44 35 22 26 40 45 41 41 40 38 37 40 42 43 42
10 11 12 14 18 19 14 27 32 28 26 28 29 39 58 76 76 89 76 91 85 85 88 89 80 75 76 84 83 71 68 54 47 47 44 29 41 43 49 46 46 44 44 42 42 42 43 42 42
12 10 11 17 25 29 25 28 31 30 24 34 33 46 76 88 89 92 88 84 87 84 89 89 86 88 85 89 82 73 60 49 49 47 42 40 52 51 52 50 48 48 47 44 43 42 42 42 42
12 10 14 19 28 38 34 36 28 27 32 34 33 43 80 78 86 88 86 83 87 92 89 91 86 87 92 94 81 71 56 48 49 48 36 51 56 56 55 53 53 51 48 47 45 44 43 43 43
13 11 15 24 27 35 23 25 30 25 34 40 40 43 55 77 84 83 86 90 90 88 89 82 75 79 78 76 90 70 54 50 52 54 50 61 60 65 62 59 48 46 45 45 45 45 46 46 49
14 12 13 19 22 27 26 22 21 34 39 42 52 55 67 77 79 77 78 80 86 93 92 97 98 98 87 74 78 71 64 58 66 67 72 66 76 72 67 58 44 43 45 47 47 48 50 47 41
14 13 12 21 22 17 19 22 18 27 37 34 51 66 74 75 75 76 75 80 79 85 93 98 100 96 78 71 65 55 58 67 75 82 80 80 79 74 63 56 53 59 51 52 51 49 46 54 48
16 12 10 17 21 16 17 18 22 24 25 28 41 57 70 72 73 68 68 57 56 67 73 100 98 95 81 63 57 62 62 72 74 80 88 85 71 71 63 53 58 60 56 54 49 46 53 52 49
15 12 10 9 17 18 17 17 22 24 26 34 47 53 58 60 54 50 47 47 50 54 64 79 80 81 77 70 68 74 78 75 83 86 92 86 83 77 64 66 59 56 51 49 48 47 45 43 42
13 11 8 9 16 17 17 18 20 22 32 41 49 48 51 52 50 45 45 45 49 50 64 75 70 71 70 75 82 89 95 91 81 90 94 77 74 69 70 63 55 52 50 48 46 47 41 41 42
10 10 9 9 13 15 14 15 17 31 35 40 40 41 45 44 46 40 38 37 40 48 60 71 74 74 82 86 74 58 64 83 89 95 80 72 72 69 66 64 64 57 54 50 46 44 44 42 40
10 10 10 11 12 11 12 15 22 34 36 37 39 44 46 42 41 40 42 38 39 47 62 79 86 86 76 70 62 62 68 76 74 74 74 71 64 55 54 58 57 58 52 47 46 45 40 40 41
11 9 10 14 15 11 9 12 26 35 34 37 40 40 40 41 43 49 51 41 43 51 65 84 90 94 89 69 65 80 75 69 70 64 65 65 59 62 58 55 57 54 49 50 47 43 46 40 41
11 13 9 11 18 9 12 23 25 36 34 36 35 37 38 40 41 52 57 54 53 62 73 89 95 98 97 86 75 78 71 64 60 57 55 55 57 58 53 55 58 50 46 46 49 51 48 48 49
10 11 12 15 26 22 22 23 27 33 37 39 36 39 39 39 47 59 65 68 69 75 80 89 93 94 91 75 65 61 61 60 56 53 58 56 56 54 53 48 50 52 51 57 56 51 46 45 47
13 12 18 24 28 25 25 29 32 32 36 38 38 39 39 44 48 61 69 70 70 76 78 82 80 80 64 58 54 55 55 53 51 54 57 54 51 49 46 52 50 55 53 51 58 58 49 42 49
19 18 23 20 27 26 24 28 33 39 38 41 42 38 40 44 51 58 64 68 74 77 77 70 66 58 57 60 57 57 57 53 50 49 48 50 55 53 53 55 55 54 51 46 58 61 61 50 47
22 21 22 27 23 21 25 18 33 38 41 42 45 44 46 50 52 55 58 60 63 63 56 53 55 58 57 48 48 50 45 45 52 48 50 50 59 58 56 54 56 56 55 57 59 59 58 52 43
25 24 23 22 21 24 25 22 30 40 42 44 47 49 50 51 47 43 43 46 48 56 54 52 49 48 51 54 53 50 50 48 48 50 54 54 52 54 55 54 54 57 59 62 66 59 54 54 54
26 26 25 24 24 29 21 24 17 34 32 39 44 46 48 45 38 36 38 40 43 48 52 51 48 50 51 51 52 52 49 45 43 46 41 33 31 30 33 45 62 63 64 71 63 59 64 62 51
26 23 28 34 35 33 32 29 18 21 31 33 42 41 44 40 35 34 37 38 43 50 52 49 48 50 51 47 43 44 45 42 32 29 27 28 26 26 28 38 49 61 67 68 67 70 67 51 46
25 24 28 33 36 25 34 27 20 27 26 31 35 34 38 37 35 36 36 41 46 50 48 48 47 45 43 41 41 36 30 29 26 29 32 31 32 33 40 48 55 64 71 72 74 69 58 52 49
29 28 29 41 48 42 22 24 24 31 31 32 35 33 36 35 37 38 42 44 47 48 51 46 39 35 36 38 35 35 34 34 36 38 37 34 35 37 42 60 66 70 79 78 81 61 56 53 50
26 27 34 33 45 37 21 24 18 34 34 34 35 36 35 32 36 40 43 47 46 48 49 42 33 34 38 42 39 32 35 36 39 38 38 37 39 41 45 54 61 69 72 75 69 54 63 52 47
31 30 30 28 37 26 23 14 25 28 30 35 35 34 34 35 38 42 44 48 47 48 42 34 35 42 42 36 35 37 36 39 39 40 40 40 45 44 47 51 57 62 73 72 66 68 75 54 43
28 27 24 27 33 44 50 21 25 32 31 30 32 32 32 37 39 42 44 46 48 44 36 36 39 41 34 33 34 36 36 36 40 42 42 43 47 50 54 59 59 58 60 61 72 73 56 43 44

GFSSGP_925_rhum_021.txt.gz
RH
23 27 13 8 14 14 14 12 10 34 42 42 40 35 49 47 59 64 51 61 66 64 67 73 62 61 61 63 64 66 69 65 55 45 34 26 26 27 27 27 28 35 45 42 29 22 30 31 32
21 10 6 9 15 14 12 9 18 36 37 33 35 39 38 47 48 60 64 65 68 68 74 78 65 65 66 68 71 71 70 62 47 38 31 24 24 25 26 28 34 47 63 62 44 36 27 23 23
15 8 9 10 13 14 12 15 32 36 30 31 37 33 39 41 46 61 65 76 77 75 75 79 66 64 66 72 74 73 69 54 44 41 32 25 26 27 26 38 48 54 63 53 36 32 31 25 23
8 6 9 14 14 10 11 25 31 27 28 26 28 35 42 46 49 58 76 79 82 80 84 76 67 64 68 74 77 74 66 53 46 45 34 30 32 25 43 45 48 46 46 43 37 40 40 40 38
8 7 10 12 12 10 18 32 32 40 28 32 25 34 33 45 48 65 69 88 86 94 89 76 68 67 71 77 79 74 66 51 49 49 44 29 24 36 44 42 40 40 41 43 43 43 42 41 40
7 8 12 13 11 11 10 28 25 27 25 24 28 33 37 42 50 60 86 85 72 81 91 80 74 73 75 79 78 74 66 53 55 49 38 29 37 47 44 42 43 43 42 42 44 42 42 42 40
9 8 11 10 18 18 13 32 55 24 23 24 21 32 44 42 52 72 73 76 61 78 92 89 84 80 80 86 81 78 62 52 50 45 34 49 48 50 48 47 48 47 46 46 44 43 42 40 38
7 8 9 10 25 29 19 26 26 32 66 27 26 42 39 43 71 91 76 88 93 96 88 83 83 82 95 94 86 72 55 50 48 44 41 53 50 50 51 50 50 51 49 48 46 45 44 40 44
8 11 10 13 30 35 22 24 22 20 28 28 31 34 42 58 70 77 85 87 86 85 84 77 70 74 74 86 80 60 47 47 50 43 47 56 56 60 57 61 47 46 44 44 44 44 42 44 49
9 9 9 17 29 47 19 19 20 25 24 27 36 38 55 62 62 65 69 74 71 78 77 74 73 67 62 56 70 59 55 52 60 59 60 55 62 62 60 51 40 41 42 44 41 41 46 47 41
9 12 10 13 24 20 25 22 17 26 30 26 35 41 47 57 58 59 59 60 65 72 84 84 78 80 57 57 50 45 49 60 66 70 66 65 62 60 57 50 48 52 48 48 47 46 44 50 48
12 10 10 13 17 15 16 16 19 57 76 22 29 41 50 47 54 52 55 46 47 61 78 94 90 77 57 51 44 49 51 59 57 62 73 69 63 60 56 49 49 52 48 51 46 45 49 46 43
12 10 11 14 15 12 13 15 29 34 22 22 33 43 44 44 40 38 36 35 40 45 60 77 73 66 65 52 59 62 61 75 74 77 86 82 75 80 63 67 60 53 50 48 48 45 44 40 38
11 11 9 11 14 20 15 14 24 20 19 29 37 37 32 34 31 31 30 32 35 40 53 58 58 60 56 64 70 79 90 95 94 98 91 70 78 53 54 54 60 58 56 56 49 47 44 42 40
10 11 9 10 14 16 12 12 16 21 21 28 29 28 29 28 28 28 29 32 33 38 50 56 58 60 66 82 79 59 52 59 68 80 87 75 70 66 77 71 70 58 56 51 44 45 41 37 36
11 11 13 10 13 15 14 15 17 21 21 24 24 27 29 30 28 26 27 28 31 37 52 58 60 69 80 81 59 54 51 65 69 71 80 88 90 81 69 67 59 61 51 47 46 42 42 42 39
12 13 13 12 11 14 14 14 15 20 19 23 26 29 30 30 28 31 31 28 30 38 52 68 70 80 87 77 58 63 64 66 72 73 71 73 68 64 56 52 56 56 46 46 47 46 48 45 44
13 11 8 11 13 12 9 13 13 18 19 23 24 28 30 30 30 35 36 31 31 38 52 69 78 83 93 84 82 76 80 76 64 55 53 53 56 57 51 51 59 53 47 48 54 58 53 49 41
10 10 8 9 11 9 9 13 15 17 19 22 22 25 28 30 31 41 43 44 43 50 58 82 87 94 93 76 69 67 59 56 53 49 53 53 52 51 52 46 48 51 52 54 53 53 52 39 32
9 10 12 12 12 15 11 13 14 17 18 20 21 23 25 28 34 41 48 50 50 56 61 78 79 83 73 60 53 51 49 45 44 49 54 51 51 51 46 55 54 52 53 49 46 46 49 42 36
12 11 16 14 15 14 13 16 21 21 20 24 23 22 24 27 36 43 48 52 56 61 68 69 68 65 51 50 53 51 49 49 44 46 44 50 54 53 53 53 54 52 47 40 42 47 52 45 41
17 16 14 16 18 18 14 18 18 23 25 27 29 28 28 29 33 41 48 54 59 61 60 55 54 51 56 44 38 39 37 39 47 44 48 50 52 55 52 48 50 49 47 47 46 40 52 50 44
29 17 18 16 17 19 18 16 44 25 25 27 27 29 30 32 38 42 47 48 51 52 50 49 49 43 44 46 47 44 45 46 46 46 45 40 34 31 30 30 34 49 52 49 51 54 53 50 53
18 20 19 17 14 24 14 18 23 24 20 24 29 32 35 39 39 34 37 41 46 47 48 46 41 44 47 49 51 50 46 41 37 34 28 26 24 24 25 29 34 39 47 52 51 53 57 59 59
17 19 27 27 29 28 18 19 15 10 18 18 30 35 39 38 34 30 32 34 40 45 46 44 43 47 49 46 42 42 40 32 29 28 25 28 26 27 28 37 40 43 43 48 53 62 68 72 52
19 17 26 27 26 23 21 20 13 18 15 18 26 32 37 35 30 28 29 32 38 44 45 42 44 44 42 40 37 34 36 37 32 31 32 30 30 30 34 37 46 51 50 52 70 66 74 68 60
18 24 19 27 31 33 17 11 14 22 22 22 27 31 36 32 28 28 30 34 39 44 44 44 42 38 36 36 42 43 39 35 35 37 36 32 32 32 31 40 43 48 51 58 75 77 76 60 54
22 18 26 22 32 32 14 14 11 23 22 24 28 31 32 29 28 29 30 37 41 42 46 44 38 35 40 45 45 41 34 34 37 38 38 35 36 38 39 40 41 44 47 59 61 62 56 60 65
25 23 21 22 29 33 24 16 14 14 19 23 25 27 30 29 29 30 34 38 41 44 46 41 34 40 44 41 37 34 34 36 37 38 39 37 39 40 40 42 45 47 45 45 50 55 64 65 66
21 22 22 33 27 30 41 23 15 18 18 21 24 25 26 28 27 29 35 39 41 44 42 36 38 42 40 37 35 34 35 32 34 37 38 38 40 42 41 43 46 44 43 46 54 61 69 67 55

GFSSGP_925_rhum_024.txt.gz
RH
11 15 24 16 12 16 17 13 9 29 42 34 30 29 42 48 65 85 80 61 68 73 67 57 62 62 59 60 64 65 65 56 43 33 32 34 37 36 30 29 34 47 60 54 51 34 24 24 24
26 24 16 8 14 18 14 13 39 40 35 32 32 33 34 51 52 74 77 70 66 73 76 61 61 61 64 70 74 72 63 49 39 32 28 32 32 30 30 40 54 63 67 63 38 25 22 22 22
26 14 6 9 13 17 14 18 30 34 30 32 35 31 34 46 53 61 71 67 66 67 75 71 64 65 71 76 76 70 55 47 40 32 28 28 25 27 44 51 58 64 69 56 40 34 32 30 28
15 8 7 15 15 11 10 31 28 29 30 26 29 36 37 37 48 62 74 78 74 70 79 70 69 71 77 78 76 65 51 45 41 34 27 25 24 43 44 48 48 46 38 40 38 36 35 34 31
12 8 10 12 12 11 10 32 37 59 76 30 25 29 38 39 60 64 78 83 82 90 77 75 77 75 78 80 75 61 49 45 41 33 22 20 36 41 41 41 39 40 41 41 41 41 39 37 32
10 8 13 13 11 9 8 30 48 62 73 36 28 28 40 44 56 78 91 98 86 74 76 85 84 80 79 80 74 60 48 47 41 34 20 29 45 42 43 43 43 43 43 42 42 42 41 36 33
13 9 10 11 11 15 24 36 48 49 53 35 42 52 42 41 62 81 93 83 98 82 95 88 95 85 83 83 76 60 48 46 39 30 34 43 47 44 43 42 43 45 45 44 44 41 37 40 41
8 9 11 10 10 19 37 36 32 39 42 39 52 43 59 60 87 87 83 77 89 96 68 91 85 84 88 79 68 47 42 42 39 30 46 44 43 41 46 61 43 42 43 42 41 40 33 42 48
6 10 13 11 12 49 63 67 37 23 36 48 58 42 59 73 89 93 91 80 89 78 83 82 79 83 78 71 65 47 41 40 33 40 46 55 59 57 69 50 38 38 39 39 36 35 42 45 49
9 12 11 15 29 60 54 48 35 23 24 38 43 48 57 68 76 82 94 99 91 88 90 72 71 78 80 71 60 43 39 57 57 46 58 68 58 60 54 46 34 44 45 45 48 49 47 51 49
9 11 9 17 40 43 38 30 19 36 46 42 85 46 50 58 62 66 76 84 97 82 77 73 69 64 66 56 58 51 54 62 66 67 65 61 61 60 58 57 55 53 52 54 50 48 50 47 45
11 8 9 16 40 45 59 28 33 40 52 48 50 37 44 52 54 57 58 65 77 81 90 73 62 58 53 50 47 47 57 62 65 68 70 65 66 63 54 54 55 55 55 50 49 49 48 44 40
10 10 9 16 17 36 30 34 37 38 44 40 50 39 38 41 41 42 42 53 62 76 79 72 67 60 49 52 53 60 64 65 72 81 75 80 76 69 56 53 47 57 54 54 53 48 46 42 42
9 11 10 14 19 14 21 29 37 42 32 41 43 37 36 32 31 30 32 40 44 65 73 72 64 61 55 61 67 64 63 65 73 78 85 72 69 57 52 60 66 60 59 54 49 46 44 42 41
12 13 11 11 15 15 22 26 28 25 26 29 29 28 28 27 27 28 29 33 39 54 61 61 62 58 68 74 68 58 51 54 55 59 68 84 69 71 69 70 61 61 58 51 47 46 42 43 42
13 13 17 11 15 18 18 25 15 20 23 26 26 27 26 25 24 26 29 31 35 48 55 58 58 64 75 72 52 58 70 56 62 63 74 78 79 78 64 62 61 60 49 48 49 47 48 50 50
16 21 16 12 13 17 18 25 14 15 23 23 24 25 26 28 25 25 27 28 33 50 54 58 63 78 79 71 66 68 61 68 65 58 72 71 67 64 56 54 58 51 48 47 50 56 57 57 54
22 17 14 13 10 14 15 17 14 14 20 23 24 25 29 30 28 30 28 28 31 50 60 62 73 87 86 68 63 69 79 80 66 60 59 57 58 58 52 52 52 53 52 53 55 55 56 56 47
14 15 13 10 10 11 12 13 12 14 17 23 26 28 30 30 30 33 33 31 29 53 68 70 82 87 85 75 76 72 72 63 55 51 53 52 53 51 50 51 52 52 54 54 51 49 48 50 46
12 14 11 9 10 11 9 10 11 13 17 19 21 26 29 30 31 38 40 41 40 54 74 85 81 87 83 76 70 64 55 53 49 54 54 53 52 53 50 56 56 56 55 50 44 44 48 51 49
13 15 18 12 9 7 21 11 13 12 14 16 18 19 22 26 36 39 43 47 48 66 78 80 80 80 77 66 55 52 48 47 49 51 53 54 56 55 54 53 51 51 50 49 49 48 49 54 51
20 20 17 20 16 19 19 32 49 36 17 16 18 20 22 23 32 37 43 49 67 69 75 72 72 67 55 50 49 48 46 48 47 47 52 52 52 51 43 37 36 43 51 54 52 50 52 55 53
29 20 21 16 15 31 32 35 33 36 32 24 24 26 26 26 31 40 44 60 63 63 65 66 56 53 51 42 45 45 49 48 47 47 42 38 31 27 26 27 30 33 36 44 52 54 54 56 54
20 22 19 14 16 57 27 43 29 32 33 58 23 25 27 29 34 37 43 49 52 54 51 51 46 43 45 48 49 47 44 41 39 30 29 30 26 26 28 31 37 40 44 45 50 52 56 60 68
14 17 30 57 65 49 16 19 36 25 45 65 62 26 29 34 39 42 44 45 48 52 50 44 42 46 50 52 48 44 35 32 34 37 32 31 29 29 30 34 39 44 50 51 52 58 64 66 70
37 16 37 81 88 36 20 22 16 20 19 29 27 30 36 40 41 38 41 42 46 48 48 42 44 49 48 44 40 35 37 39 35 33 34 32 32 32 33 34 40 43 46 51 57 64 63 66 74
17 21 17 36 41 40 21 12 11 17 18 16 29 32 39 39 36 34 34 38 42 46 46 43 45 45 43 39 39 44 41 31 33 37 38 34 34 35 34 39 41 41 43 47 54 59 73 74 71
18 14 29 24 38 38 20 16 19 23 19 20 26 33 37 36 32 31 30 36 40 44 45 44 43 41 39 40 48 45 40 35 37 38 38 38 37 39 40 40 41 43 46 46 47 57 56 59 66
23 24 18 17 34 55 50 23 15 16 16 20 23 31 34 36 32 31 31 35 39 44 46 47 42 37 39 47 47 36 36 35 38 38 39 40 39 40 41 41 42 44 45 45 48 53 56 60 67
18 23 19 58 38 50 61 36 14 16 14 18 20 22 30 32 30 30 31 36 40 43 46 47 39 36 43 45 39 39 34 36 37 36 38 39 39 40 42 42 43 45 46 46 55 60 56 54 60

GFSSGP_925_rhum_027.txt.gz
RH
12 9 16 27 25 26 29 22 22 49 46 40 36 50 67 68 80 89 90 77 79 79 92 92 85 76 63 66 69 64 50 38 33 33 33 34 33 31 32 33 31 40 57 53 35 22 21 21 24
13 24 26 30 20 26 27 24 51 49 42 38 37 44 57 75 77 95 90 87 66 67 75 84 78 62 67 72 70 58 42 36 35 34 30 29 30 36 42 43 42 54 70 66 51 32 28 26 25
17 29 27 16 18 22 21 30 52 44 38 37 39 43 47 74 78 83 81 80 64 83 79 68 61 65 73 73 67 50 44 35 31 26 25 28 44 47 43 45 54 63 62 49 34 31 30 26 28
22 18 13 18 24 18 15 38 45 51 61 60 57 50 45 60 65 78 85 80 74 80 63 62 68 75 76 75 60 50 43 38 33 28 25 38 40 39 40 43 43 43 38 35 33 31 28 29 34
25 21 15 18 19 16 20 47 52 61 64 56 63 49 53 70 73 84 92 94 86 77 77 77 78 80 81 72 58 50 43 37 27 20 21 39 36 37 36 35 37 36 35 35 33 30 35 37 34
25 17 19 20 14 22 51 61 61 61 63 53 54 46 54 71 77 83 90 98 98 86 82 81 81 85 85 69 53 44 42 33 24 18 33 36 34 34 36 38 38 37 37 36 35 33 40 41 34
25 22 19 14 13 37 56 49 58 56 64 62 50 65 62 98 100 100 100 99 99 92 93 91 88 84 85 66 48 38 39 32 21 26 39 36 32 33 35 36 37 37 37 36 35 32 36 45 41
15 18 19 15 14 62 56 55 67 58 46 45 53 74 83 99 100 99 87 82 82 91 88 76 79 92 81 66 45 40 38 30 25 39 37 35 32 33 39 33 34 34 35 35 33 36 43 50 49
13 19 17 14 37 54 59 56 59 59 52 46 60 75 95 98 87 97 100 84 85 89 96 85 85 79 71 56 41 36 32 26 38 40 44 55 48 59 54 29 30 32 32 40 47 47 48 50 47
16 20 16 28 46 53 53 52 55 63 46 70 81 83 97 86 86 88 90 96 77 79 86 91 82 76 64 49 36 33 34 29 44 60 63 66 64 59 49 41 38 51 46 49 50 53 53 49 45
14 16 12 33 42 50 46 39 40 46 50 63 75 92 88 92 89 82 76 73 77 74 98 81 72 70 52 44 34 56 60 56 53 63 65 58 62 54 53 55 50 61 58 56 55 53 50 42 40
14 12 10 37 42 39 62 59 38 45 55 64 59 59 77 81 86 89 88 90 89 91 86 73 76 72 53 48 52 56 66 69 65 72 70 63 65 69 60 62 50 62 62 55 51 48 46 43 42
14 12 12 30 39 54 48 48 40 34 46 59 65 67 73 70 88 86 84 85 87 91 79 69 71 56 56 59 57 62 70 71 73 71 74 76 70 65 56 50 50 60 57 57 52 46 45 43 41
11 12 13 20 40 42 48 44 40 40 38 46 54 61 62 60 68 82 82 85 88 78 66 65 58 51 57 62 64 65 68 74 80 76 74 76 66 63 50 53 67 62 59 54 48 45 44 43 43
15 15 12 17 25 35 31 46 45 37 40 42 52 46 51 38 47 60 71 77 73 68 64 72 55 59 60 61 61 64 62 59 50 49 52 65 67 62 64 67 63 60 52 49 47 47 45 46 48
16 16 20 13 21 25 19 30 44 45 43 48 41 36 37 36 35 47 54 72 75 68 64 70 60 71 66 64 64 51 56 61 57 54 57 63 69 71 65 67 61 57 48 48 49 50 52 53 54
19 24 22 19 17 20 21 26 43 47 41 41 38 37 36 36 36 36 46 62 63 58 66 63 59 76 70 66 53 57 64 65 61 60 64 63 65 62 60 56 56 46 49 51 53 54 54 54 56
23 23 23 21 20 21 22 22 22 30 31 37 39 40 41 38 36 32 33 51 59 61 60 60 69 76 73 58 58 70 79 75 63 63 61 60 57 54 52 50 49 53 54 55 55 51 49 47 50
23 22 21 16 14 23 24 22 22 21 34 43 48 50 40 41 38 28 29 47 59 59 63 68 69 75 74 54 67 81 81 65 70 56 56 54 50 48 50 54 55 55 56 55 49 46 44 47 51
24 23 22 15 14 16 17 18 19 20 25 43 44 44 44 44 42 41 39 45 65 70 74 74 77 81 72 54 62 73 64 64 52 53 54 51 52 52 53 53 55 55 53 48 47 50 49 51 54
26 30 25 18 11 10 17 25 30 20 20 32 40 37 37 41 48 50 47 59 75 85 78 82 83 81 75 70 69 74 61 54 53 53 53 53 53 54 54 52 51 48 51 52 53 52 54 54 54
22 23 24 20 26 22 24 37 39 32 21 22 27 35 37 39 46 50 53 57 82 89 85 85 78 73 72 75 80 65 56 54 52 53 52 54 54 49 34 31 31 32 35 39 48 53 52 56 57
28 21 23 25 27 30 34 39 39 31 24 29 38 33 36 42 48 53 58 76 80 82 78 81 70 68 74 79 53 50 48 52 56 54 50 37 34 30 26 26 29 31 33 42 45 51 55 60 58
22 22 27 33 37 56 31 40 45 49 30 37 38 32 31 44 51 56 69 71 74 68 68 68 69 56 46 51 51 49 48 48 40 35 33 29 28 27 28 29 30 33 42 48 52 56 60 62 64
29 33 50 58 77 70 39 42 42 37 32 32 30 28 36 52 55 67 69 67 70 67 69 62 49 50 49 48 48 48 48 42 40 33 34 31 29 30 31 32 34 38 43 47 52 59 60 61 64
25 34 65 72 83 64 38 44 33 26 26 28 32 34 41 55 60 62 61 64 59 52 46 44 48 52 52 50 43 37 38 36 35 38 32 31 31 32 33 33 37 40 42 42 46 57 51 58 69
23 30 33 66 68 76 48 20 24 30 39 48 47 45 57 60 58 58 57 57 53 50 45 46 50 52 50 48 43 40 37 42 34 35 34 34 33 34 36 38 40 41 43 44 45 46 55 67 70
21 24 39 52 51 53 33 27 43 32 29 42 52 56 57 53 50 52 53 55 50 48 46 47 50 50 45 40 38 39 43 33 36 37 37 37 37 37 39 41 41 42 42 45 47 51 55 58 61
29 29 24 32 57 64 74 44 19 23 28 35 48 50 52 49 45 46 49 51 48 47 47 47 48 46 42 37 39 47 37 37 37 38 39 40 39 40 40 42 42 42 44 46 51 51 55 58 57
21 29 43 65 39 70 76 52 20 18 22 26 28 43 48 46 41 42 45 49 52 50 47 46 47 44 40 45 47 40 37 39 38 39 39 40 39 40 41 42 43 44 46 46 49 52 60 55 57

GFSSGP_925_rhum_030.txt.gz
RH
16 16 16 28 31 29 28 24 17 37 50 44 52 69 80 81 80 80 92 84 99 99 97 85 76 64 62 68 65 47 35 31 30 28 26 29 29 28 31 43 42 45 46 28 26 26 27 29 32
18 26 28 33 24 26 23 21 24 55 55 47 47 57 73 90 86 98 97 88 98 99 95 84 73 61 65 68 55 42 37 34 33 29 27 33 39 39 35 32 32 32 31 28 26 28 31 32 37
20 29 39 31 25 24 23 28 52 56 56 44 43 49 61 92 86 86 96 100 99 100 100 86 62 57 68 65 50 39 39 36 29 30 35 44 45 37 29 30 31 29 30 28 27 31 34 35 35
25 21 20 18 20 18 15 17 49 53 45 56 58 59 60 84 80 87 88 98 100 100 91 70 61 70 72 60 41 36 34 34 29 27 45 60 41 32 27 28 30 30 29 29 34 34 34 36 35
27 22 19 19 17 14 56 59 62 65 64 56 54 62 79 95 95 97 92 88 91 98 77 69 72 75 67 50 40 34 32 26 24 36 37 33 32 28 29 29 30 31 31 30 39 38 34 35 37
30 20 21 22 15 54 62 62 62 69 68 61 53 62 91 99 99 100 94 94 98 90 83 81 80 75 59 52 42 35 26 22 23 38 32 28 28 29 29 30 32 32 32 31 33 43 42 37 43
29 28 28 20 19 41 57 58 60 60 65 59 58 78 94 94 100 100 99 100 98 98 99 93 83 80 60 47 42 35 28 20 28 33 28 30 30 30 30 32 32 34 33 31 33 42 49 44 42
23 22 20 18 15 30 59 59 65 60 59 59 65 85 98 99 100 99 96 99 94 99 93 92 87 80 72 52 44 37 25 18 37 36 30 30 31 29 30 32 33 32 32 39 43 45 50 47 45
15 23 25 18 24 54 60 59 55 60 53 88 88 91 96 100 100 100 100 100 98 93 90 68 59 89 64 46 44 35 24 36 38 36 34 37 35 45 32 32 32 34 40 47 48 50 51 48 44
20 25 20 16 42 54 56 60 54 46 79 86 97 96 97 97 94 94 97 99 100 93 79 78 80 88 68 50 43 35 27 39 37 48 48 58 59 54 36 35 41 46 45 54 54 55 52 44 43
18 21 16 19 46 45 51 48 49 53 64 76 86 94 92 92 90 86 89 87 84 95 71 69 91 86 55 40 40 31 31 46 55 60 66 66 65 67 57 46 54 61 60 56 54 49 44 43 43
16 15 14 30 48 48 48 46 35 48 56 68 77 86 85 88 86 86 84 85 89 100 60 80 90 77 52 34 41 35 36 50 60 67 68 72 66 68 67 63 60 61 57 52 49 47 45 42 41
17 15 17 39 43 44 44 51 43 68 66 67 78 84 86 86 79 75 72 76 81 96 86 83 78 67 48 41 60 63 61 66 78 78 73 72 68 61 56 55 57 58 58 55 50 46 45 44 43
19 15 32 43 46 43 39 43 40 55 67 70 69 83 86 76 69 81 80 81 85 91 87 78 74 58 59 54 58 65 71 76 77 74 75 71 69 64 56 61 62 60 57 53 48 46 45 45 46
21 16 27 45 46 45 37 40 38 45 55 64 64 76 79 68 78 77 79 83 78 88 83 77 73 68 61 56 64 79 81 78 74 72 70 72 62 58 62 64 62 57 51 49 48 47 47 47 49
21 20 23 37 40 38 26 35 37 44 50 59 65 67 80 70 74 79 78 82 88 83 76 69 69 65 64 69 74 73 70 62 53 52 58 66 70 69 69 63 60 51 49 50 52 53 53 53 52
26 24 21 25 25 28 25 32 38 45 45 50 54 55 60 77 78 77 79 84 89 73 70 67 67 66 68 70 66 61 56 54 58 64 68 72 74 68 64 60 51 50 52 52 53 54 52 49 50
28 26 23 22 18 23 25 29 40 49 46 49 50 50 46 58 65 70 78 82 81 66 70 65 64 66 66 67 59 62 67 66 65 63 62 63 59 58 54 51 53 53 53 54 54 52 45 43 45
23 27 30 24 17 24 26 27 45 49 46 49 57 51 46 49 49 55 72 75 73 72 72 67 66 72 68 66 61 74 76 71 64 61 59 57 56 53 53 51 51 52 54 54 47 45 48 47 53
31 32 32 25 19 24 26 24 34 35 41 45 46 45 45 47 44 50 65 70 71 72 76 68 65 76 72 64 59 64 72 67 67 63 56 52 48 48 49 50 51 50 46 43 48 50 51 53 56
31 34 32 29 19 15 22 32 26 22 38 41 40 40 41 42 42 47 58 67 73 77 79 70 72 75 75 66 58 72 74 68 59 55 53 52 50 51 50 49 48 47 48 52 56 56 56 57 56
35 26 27 26 28 24 24 43 37 30 30 43 40 46 44 43 40 52 56 72 76 81 82 75 77 78 77 69 60 73 69 61 57 55 54 54 54 52 51 47 39 34 34 35 39 47 56 62 61
35 22 23 26 34 33 31 34 33 35 24 37 35 38 45 46 45 55 72 82 82 84 81 84 81 80 76 74 67 74 68 60 56 54 54 55 53 40 31 29 30 31 32 37 45 49 51 59 64
24 25 36 45 46 55 42 38 40 41 30 23 30 35 38 50 59 62 82 89 96 88 87 85 83 84 84 80 76 79 70 58 57 56 56 44 29 30 32 32 31 30 35 45 49 56 62 63 64
26 34 49 49 70 60 43 43 38 33 33 32 32 33 43 53 68 82 90 93 98 98 88 82 79 81 77 80 84 76 64 55 56 53 40 30 30 30 31 32 33 37 40 42 43 56 61 56 58
31 34 59 53 70 53 43 51 39 28 28 31 32 42 56 66 67 75 82 87 92 92 88 83 74 57 58 68 63 57 52 53 47 38 33 32 31 33 34 36 39 40 42 42 43 45 47 61 74
30 32 34 66 74 73 56 32 28 35 37 37 47 43 62 77 82 78 78 78 77 74 68 64 53 50 50 51 52 45 42 41 36 36 33 32 33 34 37 35 39 42 42 42 45 46 48 59 60
30 24 36 57 56 58 40 36 43 31 29 37 48 46 65 72 73 73 71 71 65 58 56 53 51 50 50 48 42 38 37 39 37 35 34 34 38 36 37 38 41 40 41 43 45 48 54 55 56
33 31 30 40 56 57 69 46 26 30 32 44 51 51 66 66 67 68 66 64 57 49 48 48 49 50 55 49 44 41 43 35 36 37 38 38 39 40 42 40 41 42 42 44 48 51 51 55 55
31 33 42 62 37 76 77 49 28 26 31 43 48 51 62 56 60 61 61 62 61 56 52 51 51 50 49 45 42 40 42 36 38 38 38 40 40 41 40 41 42 43 43 42 45 49 59 57 57

GFSSGP_925_rhum_033.txt.gz
RH
21 20 19 29 30 31 29 25 18 24 52 60 60 63 76 95 80 74 100 89 95 100 95 83 68 53 54 57 46 32 28 36 34 25 27 29 30 32 25 19 21 30 59 63 58 41 39 41 41
21 24 29 28 28 28 25 20 20 27 54 64 59 71 84 94 84 96 96 93 96 100 96 83 65 58 66 56 40 34 41 37 27 25 27 31 37 26 22 24 27 29 38 58 54 45 38 40 54
22 34 44 33 29 25 24 21 55 54 60 61 55 56 73 91 90 92 93 94 97 100 98 82 62 58 64 49 36 30 30 28 26 25 42 37 35 28 26 26 26 27 35 40 39 40 39 37 40
26 25 22 20 18 17 16 17 28 55 58 64 69 69 82 92 82 87 98 98 100 100 100 86 67 64 59 42 31 28 29 28 32 41 51 41 32 33 28 27 27 30 35 35 36 39 42 37 36
28 23 22 19 18 17 58 65 65 70 76 72 65 88 90 97 98 100 100 94 98 100 92 74 70 69 55 36 32 30 26 27 38 44 37 28 32 31 28 28 29 34 40 37 36 36 41 39 35
33 22 23 23 17 35 61 63 63 71 67 69 59 77 94 99 98 100 100 100 100 99 96 76 73 67 47 38 36 29 30 29 36 32 29 32 33 32 32 31 30 31 34 43 42 38 42 42 40
32 34 29 21 22 19 60 56 65 63 61 70 67 88 94 96 100 98 99 100 100 98 92 95 97 60 47 43 44 29 30 26 36 37 31 30 33 33 32 33 32 32 34 40 47 45 42 44 41
30 26 22 19 18 21 56 57 63 59 60 60 70 94 94 98 99 98 99 97 93 99 100 100 90 56 41 40 40 26 18 32 32 28 29 32 32 34 33 33 33 35 40 43 48 49 48 46 45
17 29 27 21 23 45 56 56 64 68 85 87 91 88 92 100 97 95 98 94 89 93 88 86 92 76 57 45 30 25 20 36 34 33 33 35 36 35 36 38 36 42 46 47 50 52 49 45 46
24 28 22 18 29 53 57 57 55 75 89 92 94 94 99 100 99 98 96 99 88 91 88 75 59 64 58 44 42 29 32 45 37 35 37 43 50 40 38 39 41 43 51 53 55 54 46 44 43
20 24 19 16 41 47 54 60 53 75 83 87 89 90 89 96 98 98 95 98 99 99 88 80 76 83 75 66 50 33 44 46 41 42 58 62 64 48 43 46 53 55 57 56 57 47 43 43 43
20 18 16 20 51 49 50 46 46 55 60 80 85 87 89 92 89 94 97 98 100 99 85 69 73 91 75 61 46 35 48 47 54 58 64 66 65 60 57 59 63 61 57 52 48 46 44 42 41
18 16 16 25 49 46 47 46 62 80 79 84 86 82 79 82 87 89 92 88 92 95 95 78 82 90 67 52 47 42 51 58 64 67 70 70 62 64 63 58 61 58 54 51 48 46 45 45 46
20 24 43 44 47 44 50 56 54 66 88 89 82 78 65 69 80 78 80 84 84 88 78 82 82 87 70 50 47 43 48 59 78 75 70 72 65 61 56 54 57 57 54 50 48 47 47 48 49
23 26 42 45 46 44 41 44 62 66 82 87 84 78 74 69 74 79 77 76 65 71 68 74 79 86 74 46 60 63 65 72 82 78 74 72 69 64 58 59 61 56 52 50 50 50 51 51 52
22 22 33 40 44 37 28 42 46 67 76 86 89 87 83 76 70 78 77 74 73 84 81 74 80 80 68 49 62 67 75 83 83 78 77 77 71 64 65 63 56 53 52 51 51 53 53 51 47
29 24 25 38 36 37 31 35 44 61 69 78 88 91 81 74 68 77 76 75 72 80 81 75 80 80 67 73 73 80 84 82 69 57 60 75 78 75 67 61 55 52 49 51 53 52 49 43 43
30 29 27 25 19 36 44 32 48 54 67 70 72 79 85 70 68 75 75 75 75 83 85 82 79 77 70 80 83 76 64 58 57 59 64 75 78 72 63 54 51 50 52 54 54 48 44 45 46
29 33 35 28 23 25 34 30 46 52 54 63 65 67 81 77 66 74 78 78 84 92 87 77 75 70 73 80 72 68 64 64 64 65 70 65 65 60 54 51 52 54 54 49 42 46 46 44 49
31 33 32 31 23 25 30 27 42 54 50 54 57 58 58 76 73 73 78 83 89 88 82 78 73 74 79 73 66 66 70 68 65 68 61 58 56 55 53 52 54 52 45 48 49 50 53 53 55
30 33 36 34 24 22 28 29 28 29 43 46 50 47 48 57 69 70 78 84 86 86 79 79 72 72 75 71 68 68 80 74 76 66 58 53 51 52 52 54 51 48 48 42 38 42 54 57 56
37 29 33 29 28 22 25 38 36 33 41 47 47 56 47 49 54 58 70 80 81 82 82 84 79 73 76 74 69 66 77 79 72 65 56 54 55 54 55 50 44 36 33 32 37 44 49 58 63
34 30 30 27 35 34 35 36 34 36 37 45 48 48 48 44 46 53 64 72 76 78 78 82 82 81 83 77 70 77 80 71 64 57 56 59 57 52 42 34 32 31 29 26 30 43 54 58 65
27 27 37 48 46 55 41 39 40 40 32 32 42 41 45 57 57 65 56 68 78 83 84 86 90 86 89 82 77 80 80 65 60 59 61 54 44 35 33 32 32 34 35 31 37 49 63 64 65
30 35 46 46 66 58 43 43 40 28 31 31 39 40 41 44 64 83 86 83 89 94 88 97 95 97 87 87 82 77 80 67 59 58 57 44 36 33 33 33 34 41 28 36 40 42 53 59 62
33 33 54 49 65 46 47 57 38 30 32 32 32 36 44 60 59 80 86 90 96 96 97 100 92 89 86 89 87 88 81 73 63 59 52 40 33 33 34 35 51 32 36 39 40 45 46 47 58
31 36 35 65 75 71 55 42 29 31 33 50 48 50 64 76 77 86 89 92 98 98 97 93 85 86 86 84 85 86 83 82 68 64 40 34 32 33 38 49 30 34 37 39 41 45 46 53 60
29 32 38 57 50 58 49 40 43 32 28 36 55 50 69 81 89 91 92 95 97 93 96 95 84 78 75 67 67 78 66 59 57 42 35 35 38 39 42 35 37 38 40 40 42 46 50 52 51
35 34 36 43 59 58 67 50 32 32 29 29 36 46 60 86 87 84 82 85 86 86 87 84 80 69 57 59 59 55 49 47 41 37 35 38 40 40 40 44 42 41 42 43 42 44 49 52 56
31 31 40 64 43 79 79 53 28 26 30 34 39 42 60 76 79 78 78 78 75 76 76 74 67 55 52 53 52 50 46 40 39 37 35 38 37 40 45 42 41 42 43 44 42 42 45 50 61

GFSSGP_925_rhum_036.txt.gz
RH
20 19 19 26 29 31 28 25 20 20 37 74 70 71 78 92 84 76 99 90 94 100 94 76 61 54 51 39 29 25 20 20 24 25 25 40 45 42 48 61 70 70 68 70 59 46 43 41 52
21 20 28 28 30 30 24 20 20 40 65 67 59 73 90 89 85 96 93 95 98 99 94 73 58 57 51 36 27 21 20 19 18 22 22 37 32 37 48 64 67 67 66 62 43 50 56 59 58
22 34 41 30 31 27 24 18 46 65 66 68 61 69 86 92 85 94 90 98 97 100 91 78 66 61 53 36 28 23 28 20 23 24 32 30 38 49 48 54 62 64 53 46 36 35 40 45 50
26 30 21 22 19 18 17 17 65 60 63 65 66 86 90 96 90 89 92 99 99 100 93 76 71 64 46 35 24 21 18 25 33 41 53 49 55 39 36 42 49 58 45 38 37 34 34 38 43
24 27 26 20 18 16 33 63 66 72 70 68 71 87 93 97 100 100 100 100 100 100 88 82 74 63 48 37 26 28 30 33 50 48 56 52 42 36 32 38 36 39 44 40 39 38 36 34 40
34 24 27 25 18 16 59 63 64 70 69 67 79 83 92 99 99 100 100 100 99 100 100 91 82 67 56 50 26 36 35 49 53 54 42 42 36 31 32 38 40 40 42 43 41 39 38 39 39
32 35 29 22 24 19 56 60 64 67 69 68 65 88 96 98 100 100 99 99 100 100 100 100 93 67 50 34 36 38 43 50 36 34 32 36 32 32 32 32 35 41 46 48 46 43 43 42 41
35 30 24 22 20 19 52 58 64 66 71 71 83 88 98 98 100 98 99 99 100 100 100 98 93 69 58 50 37 43 34 49 38 30 36 34 33 34 36 37 38 41 45 48 48 48 46 45 43
21 33 30 22 22 23 58 60 63 80 88 82 89 90 94 100 100 92 99 99 100 94 97 95 86 68 57 45 43 43 45 29 26 36 36 35 37 37 37 39 44 46 47 51 52 49 47 46 44
28 32 25 21 17 44 61 53 63 82 84 88 95 97 100 100 100 99 99 99 100 100 97 80 81 64 58 51 50 41 30 30 34 38 37 35 36 40 40 42 45 50 52 54 54 48 47 45 45
24 27 22 18 20 46 62 56 56 88 90 83 92 94 97 99 98 95 92 96 95 94 91 90 81 62 51 57 36 24 42 37 38 38 38 43 43 42 42 47 49 54 58 58 51 46 44 45 45
22 21 18 17 48 53 53 49 60 62 73 78 82 85 91 91 95 96 87 96 100 99 95 86 75 68 87 56 36 32 46 41 41 45 48 61 54 48 45 55 60 59 54 52 49 46 44 42 42
20 17 19 26 50 51 49 54 69 96 90 81 85 82 86 86 88 93 96 91 98 100 88 79 75 87 75 52 49 40 50 47 47 56 65 66 64 57 59 63 63 57 52 50 47 45 45 46 47
21 28 38 49 48 47 64 65 59 86 91 94 92 92 90 88 88 92 98 99 100 88 68 69 76 88 78 67 56 45 53 52 59 66 71 66 60 63 64 62 60 57 53 50 48 48 48 49 50
25 33 38 46 47 47 47 45 72 91 90 93 90 81 71 84 81 83 87 93 98 93 84 81 78 98 93 72 57 45 53 62 69 70 70 71 67 63 58 58 58 56 54 52 50 50 51 52 51
22 22 30 40 44 45 37 49 75 91 86 92 90 86 81 75 78 77 79 84 91 80 69 69 85 90 88 72 54 46 52 68 82 78 78 72 68 64 62 60 60 56 53 51 50 52 52 49 42
32 27 29 43 42 42 36 48 67 85 89 94 92 92 90 88 76 73 73 74 76 69 70 79 84 83 80 77 57 66 70 78 85 90 88 81 77 71 65 63 58 54 52 52 52 52 48 39 35
32 31 31 29 25 41 46 37 67 79 82 88 91 94 95 88 80 71 71 72 71 72 76 76 80 81 82 73 60 75 86 91 88 84 78 77 81 76 67 60 56 53 52 53 53 44 41 41 43
31 33 35 32 25 28 42 46 59 74 76 84 90 93 95 82 68 66 72 70 72 74 84 82 80 80 82 78 83 95 94 87 72 66 66 70 82 76 64 57 54 55 55 49 44 44 47 50 52
31 33 35 31 24 28 33 40 55 66 70 74 77 78 80 81 75 69 78 75 72 72 77 85 83 81 83 76 83 88 79 71 65 67 69 71 76 66 57 55 56 55 47 48 48 50 53 58 56
32 32 35 35 30 24 29 32 56 48 56 57 64 62 64 73 80 75 83 82 78 79 79 88 87 82 84 82 83 79 72 70 74 71 64 63 65 58 57 57 54 50 47 36 36 40 44 51 57
34 31 34 36 30 27 28 33 37 45 56 53 52 62 57 60 69 76 78 84 86 88 85 87 88 80 80 80 80 76 70 76 76 68 62 61 62 58 56 54 49 36 32 27 27 35 41 43 57
34 30 33 30 35 35 36 36 31 40 44 51 48 52 54 53 56 70 75 78 82 83 86 87 88 82 85 78 80 76 75 78 77 70 62 61 60 58 54 42 33 29 25 30 28 30 32 43 56
28 30 35 46 48 54 39 42 43 48 36 36 41 45 48 50 55 61 63 68 83 84 84 84 88 88 86 85 83 80 79 84 77 73 64 62 58 49 38 33 30 35 34 29 30 28 35 54 63
31 36 47 44 65 60 43 48 45 30 29 34 36 40 45 48 52 62 68 75 80 82 85 86 88 94 95 94 88 86 83 85 76 69 62 58 48 39 35 33 38 58 57 40 29 27 32 43 53
32 35 55 43 65 44 46 51 34 29 36 42 39 37 52 57 54 57 64 67 80 84 89 90 87 69 89 95 91 90 88 86 77 66 62 56 49 40 35 35 53 75 29 32 28 33 38 45 48
34 38 36 66 77 70 54 43 27 31 44 46 41 43 51 55 60 60 70 75 80 89 89 92 94 86 95 96 91 94 93 91 83 67 66 56 45 37 35 42 53 36 42 30 32 34 41 44 50
30 37 43 56 49 53 50 42 39 31 29 44 46 48 52 66 78 81 90 89 84 89 85 92 89 84 93 94 97 95 94 91 82 73 66 52 44 36 37 55 41 42 35 36 39 39 42 50 53
38 38 44 46 59 57 64 48 36 31 33 32 34 48 52 70 86 91 93 94 90 86 86 80 86 92 93 90 93 95 93 88 85 82 67 56 38 35 51 39 47 40 39 40 43 42 44 49 49
35 38 44 65 45 79 77 57 29 29 28 29 33 35 49 66 84 90 91 94 98 96 96 96 93 94 90 85 81 80 84 85 80 76 64 40 35 42 45 42 44 40 41 43 44 44 44 45 47

GFSSGP_925_rhum_039.txt.gz
RH
20 18 22 22 19 21 20 16 17 18 28 67 69 61 67 77 70 62 98 97 99 100 94 94 61 53 47 41 37 31 27 22 20 28 43 51 52 54 63 71 68 68 72 65 46 42 48 53 56
20 21 27 22 19 18 14 17 19 56 51 59 59 72 72 84 78 90 94 92 100 99 93 92 65 58 47 39 44 50 58 31 26 24 42 45 54 70 70 65 60 54 52 47 47 52 50 57 55
29 33 28 24 22 17 16 16 38 59 58 55 57 72 74 85 81 88 89 96 100 100 97 96 71 72 64 55 45 36 24 22 51 21 44 44 57 64 65 54 43 41 44 48 52 52 51 52 40
28 26 16 18 18 16 16 16 54 54 53 56 57 80 82 93 93 94 96 98 99 100 98 90 74 62 42 37 45 49 27 33 49 42 48 54 66 73 65 45 44 42 37 37 39 41 48 44 38
22 20 23 19 18 14 14 47 60 62 59 63 62 78 83 90 99 100 100 95 99 98 95 87 78 52 45 38 28 33 28 44 40 44 49 54 56 59 58 47 44 42 36 33 34 37 42 39 43
24 18 20 20 17 14 33 54 57 61 59 63 64 71 86 99 98 100 100 96 99 100 94 96 84 88 70 37 28 27 35 51 36 56 50 42 43 45 45 42 42 40 39 39 38 38 38 40 43
26 25 23 22 20 18 42 56 60 59 56 58 65 81 93 97 100 100 100 100 99 100 100 98 91 87 78 45 37 41 62 41 58 59 39 34 40 42 45 46 45 44 42 41 42 42 42 42 43
24 22 23 22 18 17 43 56 58 58 64 70 75 75 92 98 100 99 100 100 100 100 100 92 88 71 54 56 50 40 39 51 48 32 33 33 33 35 37 42 49 50 48 46 46 45 44 44 43
20 24 24 21 20 19 54 56 66 74 73 76 78 81 88 100 100 99 99 100 100 100 99 92 71 78 67 75 51 53 44 55 44 38 36 34 40 42 41 43 45 50 52 50 49 47 45 44 44
22 27 22 18 17 28 51 51 59 69 75 76 82 96 100 99 98 98 99 99 100 100 94 83 87 73 47 48 56 54 62 56 37 34 35 36 40 43 42 47 48 50 55 54 49 48 46 44 45
23 23 21 18 16 37 53 53 52 66 69 68 80 89 90 99 98 95 100 98 98 100 98 87 85 80 67 45 42 42 53 51 33 35 38 39 42 45 44 46 53 56 58 54 49 47 46 45 43
23 20 19 17 41 52 52 50 67 61 67 71 74 84 92 93 91 95 97 100 97 91 95 90 67 60 64 62 48 61 56 36 35 38 39 42 44 43 46 51 57 60 59 52 46 44 43 43 42
22 18 20 32 44 46 45 53 64 76 82 76 78 82 86 88 89 93 96 96 97 91 93 77 72 76 73 78 58 57 44 37 39 40 50 50 47 43 51 62 61 55 51 49 47 45 45 46 47
22 26 41 49 46 46 54 62 55 80 82 83 79 75 75 82 90 94 98 92 87 83 89 98 75 70 88 73 58 42 48 44 44 54 61 67 64 56 62 66 60 55 51 49 48 48 48 48 49
25 32 36 46 44 48 42 41 61 79 80 84 86 81 83 80 89 94 82 90 87 89 87 88 76 95 99 80 62 41 52 53 50 58 68 69 63 64 66 64 59 55 53 51 51 50 50 51 49
21 23 26 40 43 46 29 41 65 82 78 78 80 74 73 82 85 86 88 86 89 83 83 83 88 82 97 83 56 46 49 53 62 67 71 72 69 67 64 61 58 55 54 52 51 51 51 48 47
29 25 32 42 39 45 36 43 56 76 74 70 72 70 74 72 77 79 85 87 91 88 84 88 94 77 92 87 61 52 46 61 80 82 76 76 71 66 62 60 59 56 54 52 52 51 47 45 46
32 30 30 29 26 40 46 36 66 77 72 65 64 69 73 72 64 73 76 78 84 89 92 90 85 76 93 91 69 60 56 72 87 88 85 83 81 75 68 63 59 56 53 52 52 42 36 36 40
30 31 32 29 24 34 41 40 57 74 77 75 69 69 73 70 65 68 72 74 76 83 88 88 94 86 90 93 77 88 94 88 93 98 92 90 86 77 68 62 58 54 53 52 41 39 35 44 38
31 31 31 29 23 28 27 32 43 67 69 64 66 69 69 67 67 66 71 76 77 74 83 92 91 82 85 90 74 80 92 95 95 88 76 78 80 80 68 61 56 55 53 43 41 32 47 59 52
31 30 33 33 30 26 30 28 39 51 60 59 60 60 62 64 66 63 69 73 75 75 80 90 94 82 82 86 78 80 88 91 90 85 78 79 83 72 62 57 55 54 46 39 30 24 38 52 67
31 28 32 34 31 27 28 27 28 42 51 54 54 56 57 56 58 60 64 70 76 76 80 82 87 83 84 87 90 83 84 84 89 80 71 75 72 64 58 56 55 50 37 27 21 27 43 49 54
30 33 34 33 33 34 34 28 25 38 42 47 48 48 51 52 53 58 60 62 72 80 87 86 92 90 93 86 92 93 90 85 77 74 66 69 67 61 58 56 51 38 27 29 31 36 42 44 37
31 32 33 40 40 42 38 33 30 32 30 32 38 43 43 45 49 50 57 64 67 83 88 89 94 98 97 97 94 91 92 82 77 75 68 66 66 62 59 52 40 29 36 31 44 66 46 40 53
31 34 39 36 50 43 43 42 31 26 28 28 29 34 38 40 43 47 52 61 68 85 90 90 94 96 93 96 96 93 90 82 78 74 68 66 64 61 52 40 31 39 46 60 65 32 31 38 61
36 33 44 42 48 35 43 40 23 27 27 34 39 36 31 40 43 44 45 51 65 78 86 92 93 94 80 88 89 97 94 89 83 79 74 68 63 60 47 36 38 57 72 52 42 31 33 37 43
34 36 35 58 70 57 42 34 24 27 30 35 38 40 36 39 45 44 44 51 61 76 85 89 92 91 80 65 98 100 99 98 91 84 80 75 65 58 46 39 49 67 50 36 32 34 32 39 40
32 33 42 49 54 55 41 39 26 24 26 30 33 35 38 45 44 51 50 56 64 75 82 93 92 88 75 92 100 100 100 100 94 88 84 79 67 58 47 42 55 44 41 35 36 35 36 34 37
37 38 42 39 48 46 47 35 31 25 25 30 32 33 39 41 48 53 58 70 74 79 85 88 88 86 95 97 96 94 98 100 100 99 94 82 70 61 51 42 46 50 46 39 39 41 44 41 42
33 37 40 52 46 59 59 40 26 29 27 27 27 30 39 41 44 56 65 76 85 87 89 93 96 96 94 87 87 93 99 100 100 100 96 84 74 65 48 50 54 57 42 40 42 46 77 52 50

GFSSGP_925_rhum_045.txt.gz
RH
24 30 18 11 13 10 10 9 6 10 11 16 22 23 28 30 34 81 79 70 57 62 71 95 94 94 93 94 85 88 79 63 60 51 45 46 39 37 55 65 74 82 89 89 83 80 77 53 37
21 14 12 10 13 10 9 6 8 8 16 21 27 29 26 37 44 69 83 76 68 66 70 92 97 93 96 98 95 92 68 60 41 32 41 41 38 50 58 63 72 83 88 88 85 79 52 38 37
24 15 13 13 11 10 8 8 8 13 17 16 20 27 30 43 46 59 74 78 80 72 64 94 99 94 99 99 94 73 60 37 31 40 42 53 48 52 63 72 81 85 88 90 87 52 42 39 37
14 12 10 10 10 8 7 8 8 12 13 17 16 27 43 56 57 53 78 84 72 79 74 84 100 100 100 91 78 67 42 33 46 52 50 61 58 60 73 86 85 88 88 94 69 43 41 38 37
12 10 12 12 9 7 7 6 7 15 17 22 22 26 39 70 74 67 78 83 93 84 85 83 97 97 87 78 67 51 36 49 64 64 65 59 57 58 65 74 81 77 75 60 41 43 40 37 36
12 10 11 11 8 7 7 8 14 15 21 26 29 26 69 82 84 98 82 84 84 88 96 98 92 86 79 73 69 49 63 69 75 63 61 59 56 50 50 50 52 54 53 41 42 42 38 38 36
12 11 12 9 9 14 18 22 28 24 23 27 32 34 60 72 99 98 92 94 97 100 100 96 84 90 87 81 83 73 80 84 73 69 59 52 49 42 37 36 38 42 44 40 43 41 39 40 40
10 10 11 9 18 28 18 18 26 28 35 32 34 37 53 80 100 100 100 100 100 100 96 96 97 84 87 82 71 70 82 78 69 54 48 49 45 40 36 37 38 39 39 42 42 41 41 43 44
9 12 12 11 13 13 13 19 23 28 32 36 41 54 68 96 99 99 100 100 100 100 98 88 81 91 87 69 68 78 83 60 53 52 46 46 41 47 49 50 42 42 43 44 43 43 43 44 44
12 12 12 10 11 12 14 19 25 36 26 32 64 68 80 94 93 94 99 100 100 100 100 100 93 87 83 80 81 84 87 71 68 53 51 53 50 53 59 49 46 45 46 46 46 44 47 49 45
11 14 11 11 13 14 15 20 26 30 41 88 50 88 85 89 91 89 96 99 100 100 100 92 75 60 53 46 59 73 70 65 65 50 52 52 55 53 60 64 63 59 49 54 51 48 51 50 44
14 12 11 11 12 16 24 23 30 29 47 51 60 82 87 90 90 92 96 100 100 100 100 100 99 95 95 87 79 76 80 70 63 57 55 58 57 54 55 55 57 59 57 54 53 52 58 56 55
14 13 14 16 17 22 26 26 37 50 52 61 80 84 87 90 90 94 98 100 100 100 93 89 85 76 78 81 73 69 63 54 49 54 60 60 54 54 52 53 55 54 56 57 54 57 55 56 54
14 13 19 18 20 22 26 27 32 45 40 56 61 79 87 89 90 92 94 95 100 99 100 93 95 96 89 80 65 67 57 58 59 60 64 56 51 55 52 59 55 58 57 56 54 54 56 51 47
12 16 18 20 20 22 25 55 30 39 38 40 49 67 69 75 91 83 82 90 100 98 99 96 83 85 74 56 57 58 67 68 67 59 61 65 58 59 58 62 60 58 57 57 56 59 54 49 41
13 13 27 16 19 21 40 87 32 33 36 38 35 50 61 62 75 72 74 71 89 89 88 83 66 60 70 64 57 52 56 56 51 54 64 69 64 66 69 66 62 61 63 60 59 57 52 43 40
13 19 25 23 16 26 21 51 31 29 30 36 32 41 54 49 62 66 65 62 62 70 67 72 70 75 74 65 61 56 49 55 47 49 57 72 75 77 73 66 66 70 63 60 59 56 49 43 36
14 15 15 24 56 18 20 25 27 30 26 32 31 35 48 43 52 58 57 51 50 56 65 68 67 73 78 80 63 57 51 55 47 49 55 71 75 80 78 65 68 73 63 62 60 55 49 38 35
13 14 17 19 13 15 17 16 26 27 30 27 31 32 39 48 48 55 52 54 51 52 56 59 64 63 78 80 59 51 48 46 46 52 58 65 72 80 76 64 72 74 63 61 61 58 49 42 39
15 15 14 13 14 16 15 19 13 22 26 26 25 29 30 32 44 52 52 45 52 50 52 54 58 62 75 74 63 51 47 42 47 53 72 83 78 77 75 69 69 73 62 63 65 54 47 42 41
17 18 21 17 18 15 15 16 14 16 22 24 23 24 28 30 32 41 44 44 44 45 48 51 53 58 60 57 58 53 47 44 47 52 62 84 80 74 75 73 68 68 64 66 64 57 49 40 48
20 14 17 18 19 22 19 30 33 16 22 26 25 24 24 26 27 30 35 44 46 46 47 50 51 53 61 57 55 52 46 47 51 57 74 80 83 81 74 71 72 69 67 63 64 56 48 46 47
18 18 19 19 21 20 17 16 22 14 17 20 23 24 21 22 24 28 29 31 40 46 47 51 51 51 53 57 55 55 52 48 50 54 64 78 75 82 77 73 75 74 69 62 60 50 52 55 63
16 21 20 20 21 31 18 17 28 15 12 10 16 20 21 20 22 24 27 29 31 35 44 50 51 50 50 52 57 58 57 59 54 60 68 66 73 80 79 73 79 75 69 60 59 52 59 70 72
20 24 33 33 32 33 26 19 17 32 11 12 12 13 17 20 20 22 23 27 30 34 40 46 49 47 51 55 64 68 70 70 70 80 75 71 73 76 79 77 80 78 68 59 60 58 68 75 59
22 22 32 65 34 27 24 21 17 13 12 12 13 14 14 17 21 21 20 22 26 32 38 46 47 49 48 61 72 73 86 74 84 72 88 83 84 82 82 84 79 73 65 59 60 66 69 48 54
20 25 19 34 28 30 21 15 12 11 11 12 13 16 17 17 16 19 20 20 23 28 36 45 51 50 50 65 79 83 87 89 89 99 97 90 86 83 90 84 77 69 62 60 78 72 50 60 58
20 18 29 26 39 45 21 19 17 15 13 12 11 13 15 19 17 16 17 19 23 26 32 44 53 55 61 83 88 86 90 92 93 98 98 94 87 84 86 80 73 67 64 74 80 63 59 50 55
23 26 23 22 28 41 36 22 16 13 12 13 13 12 13 14 21 22 21 21 24 26 32 41 52 54 62 74 80 76 78 86 92 95 97 91 89 90 80 79 72 66 76 86 73 51 50 64 70
18 21 22 32 30 29 33 29 14 13 12 13 14 13 13 15 16 20 26 30 32 34 35 43 51 53 51 76 74 77 80 83 93 97 99 95 95 88 80 78 72 79 82 75 59 60 64 72 87

GFSSGP_925_rhum_048.txt.gz
RH
20 22 30 20 17 15 14 10 7 7 14 32 34 60 68 44 44 56 83 59 58 88 88 90 92 84 92 82 80 75 68 60 54 50 48 47 45 54 78 82 84 90 79 80 81 78 58 34 42
32 26 16 13 17 18 11 7 6 12 28 23 24 56 54 47 49 60 84 51 47 81 87 94 93 91 90 93 88 82 67 60 55 48 44 40 50 66 74 83 85 84 81 82 81 68 33 35 45
21 18 14 16 17 15 11 10 10 9 16 18 21 18 30 89 82 63 74 81 80 78 79 79 90 90 92 95 96 73 66 61 50 42 37 43 59 66 72 79 80 82 84 83 79 41 35 38 47
19 14 13 16 11 8 7 9 9 8 9 14 21 15 52 66 67 55 77 73 73 69 69 72 88 85 92 98 88 68 62 49 41 42 42 59 63 66 68 73 81 82 86 83 46 37 35 32 43
14 11 14 14 12 10 6 7 7 8 11 32 35 29 69 76 79 79 81 82 80 94 83 83 64 96 98 98 77 65 53 48 45 59 54 61 71 78 78 81 83 82 68 46 38 36 35 30 30
15 12 15 13 11 10 24 31 31 12 11 34 46 57 70 79 93 93 80 85 90 92 90 99 96 98 99 85 72 57 55 54 58 61 59 66 79 86 86 84 80 70 42 41 38 36 36 33 30
14 13 13 11 15 18 32 35 49 41 45 68 59 64 75 79 99 99 89 97 97 99 100 100 100 100 98 86 75 63 55 59 71 68 61 60 69 70 71 68 57 45 40 40 38 39 41 41 37
10 10 12 11 13 21 17 23 36 20 61 63 60 52 74 95 100 100 100 99 100 100 97 95 95 87 84 82 86 87 83 78 72 61 54 50 48 46 47 50 49 40 41 41 39 42 44 44 40
8 13 15 15 17 14 12 14 17 50 30 61 60 77 88 100 99 100 99 100 100 100 99 91 88 90 77 68 76 76 78 70 70 58 50 44 38 41 43 44 43 40 42 42 42 43 44 44 38
10 14 16 10 10 12 12 14 40 77 47 63 63 56 82 83 94 98 98 98 100 100 100 97 87 75 68 61 59 57 68 76 66 52 47 41 44 60 44 42 42 44 45 44 44 46 47 46 43
10 13 12 10 12 12 12 16 17 28 60 62 65 89 79 86 92 93 99 100 100 100 100 98 89 88 89 78 67 58 46 75 60 49 53 54 58 60 43 46 47 48 47 46 46 47 51 53 47
12 10 11 10 12 13 14 21 27 41 75 61 75 81 87 90 87 95 99 100 100 100 100 99 90 85 79 79 70 63 76 63 53 63 59 58 56 54 50 56 63 51 53 50 50 54 57 55 54
11 10 11 13 15 14 16 34 51 51 66 69 77 80 87 90 93 94 100 100 100 100 100 98 93 69 69 53 73 79 71 62 62 68 60 59 55 57 53 58 59 57 59 54 55 56 58 56 52
10 12 11 15 15 18 48 67 68 52 45 61 66 77 84 87 92 96 99 100 100 99 100 94 87 71 61 94 87 81 66 50 52 47 53 58 55 54 54 57 59 57 58 58 55 57 57 55 50
11 12 12 16 17 19 32 45 63 42 36 50 63 70 80 83 86 88 92 98 96 100 100 100 100 99 96 84 77 70 62 56 52 58 62 60 59 54 56 57 59 58 58 56 55 56 56 52 46
14 12 16 15 21 37 34 61 44 37 34 36 59 64 70 65 77 81 96 96 96 96 94 90 91 92 88 82 88 75 61 55 64 59 61 60 60 58 57 62 62 59 58 58 58 60 57 52 42
15 17 17 17 19 23 50 79 67 49 30 31 46 51 60 71 69 72 84 89 95 88 92 87 89 83 69 72 52 42 40 45 36 39 59 63 58 66 61 67 65 62 63 62 61 60 55 47 41
17 15 14 24 24 21 25 57 71 69 27 30 36 48 52 56 57 62 64 77 83 86 89 82 79 75 66 58 43 46 56 58 59 56 55 66 70 71 74 71 69 68 66 62 62 58 54 47 42
11 13 19 20 19 26 16 18 55 59 39 30 33 43 45 51 55 60 56 69 69 70 72 68 62 67 72 73 66 68 56 57 54 51 49 60 67 74 80 73 71 72 67 64 63 59 53 45 40
13 14 14 12 16 15 12 15 38 62 43 26 31 38 42 45 57 52 53 56 61 65 66 70 70 73 78 74 69 66 58 53 55 52 50 62 68 75 80 75 70 73 70 64 63 61 55 47 43
14 15 16 23 17 15 15 15 21 26 21 22 25 29 36 41 54 56 53 53 54 65 68 70 69 70 75 78 72 63 51 48 45 47 55 63 72 76 78 75 73 72 71 65 64 64 56 50 43
17 13 14 17 18 20 18 28 19 17 31 22 23 28 31 31 47 52 54 55 57 55 60 60 59 62 64 71 72 64 54 50 45 46 58 65 65 78 77 74 74 71 72 68 66 66 56 53 51
16 17 18 18 19 20 22 28 18 17 23 23 24 25 29 30 31 46 46 46 48 49 53 54 55 57 60 59 64 62 54 46 45 46 50 60 74 73 76 72 73 74 71 69 68 66 61 52 54
14 17 20 20 22 34 21 20 31 28 32 19 21 23 24 26 28 31 36 40 42 44 49 51 50 51 53 58 52 60 57 51 50 55 60 66 74 74 79 78 74 76 74 73 68 64 54 56 58
16 22 36 38 39 41 19 22 24 23 23 17 18 21 23 23 25 28 31 32 39 44 48 51 54 52 51 60 58 60 60 63 53 58 63 70 67 89 83 79 79 80 79 78 66 61 56 61 60
21 22 40 65 69 52 32 26 18 17 13 12 11 12 18 22 24 26 28 31 31 37 48 51 53 54 51 52 56 57 46 61 62 63 69 71 60 70 87 86 82 82 81 78 65 61 65 66 77
21 27 21 50 47 56 41 29 19 13 11 12 12 13 17 16 22 24 24 29 32 33 38 48 50 52 50 52 56 58 54 62 70 86 81 74 66 84 86 84 85 84 80 78 62 62 68 79 60
18 17 31 28 52 56 24 19 21 17 13 12 11 15 17 18 18 20 22 25 27 33 37 42 47 47 49 49 65 64 60 67 84 88 91 90 92 97 88 83 86 84 82 69 62 66 77 66 60
21 24 30 27 29 49 49 31 38 22 13 14 13 14 13 16 23 21 22 20 23 26 35 44 49 48 50 54 76 84 84 83 90 92 90 89 96 96 86 86 87 84 74 63 68 75 67 58 69
18 22 25 39 39 42 64 38 17 19 14 14 15 14 14 14 16 25 24 24 24 25 29 46 50 51 56 64 77 80 70 82 86 85 89 97 99 90 86 86 84 77 69 70 78 73 64 76 77

GFSSGP_925_rhum_051.txt.gz
RH
15 18 25 32 40 30 29 21 15 14 14 36 41 35 44 50 47 75 79 75 76 61 42 94 86 89 88 76 68 63 64 60 51 48 49 51 69 82 86 80 74 78 78 73 61 57 48 50 55
18 28 34 33 30 35 27 16 16 24 26 41 42 45 46 53 63 82 76 49 68 42 47 49 93 88 92 76 70 65 60 54 49 48 46 54 76 83 88 73 64 70 73 70 57 40 47 49 52
16 21 29 27 32 32 25 15 11 24 20 23 25 32 54 74 61 71 72 49 54 52 63 80 92 83 90 88 77 72 62 54 48 45 43 63 76 83 87 62 66 72 75 67 37 42 46 47 47
26 24 25 26 28 22 18 31 36 16 13 30 33 66 76 83 78 52 79 53 71 89 91 90 83 80 90 87 77 67 59 49 43 44 55 70 71 76 78 70 69 72 64 40 30 36 45 44 38
29 29 29 30 27 18 32 31 28 34 26 55 42 66 81 69 83 85 80 89 92 91 85 89 81 87 97 96 86 70 52 48 45 51 57 64 69 72 77 80 66 54 36 34 31 28 38 39 39
27 25 32 29 21 24 29 36 24 25 51 53 65 66 66 65 96 98 85 86 88 89 84 78 78 85 74 95 86 60 54 57 55 60 64 67 72 74 78 78 50 41 35 35 33 29 27 34 40
25 26 28 22 16 19 25 30 26 31 69 73 59 68 70 75 96 96 88 89 84 89 92 90 97 97 96 99 84 68 62 58 61 68 69 71 77 78 76 68 42 39 36 36 39 38 32 31 43
20 21 21 18 18 21 18 20 31 48 73 62 63 89 93 89 99 98 98 95 100 100 99 100 100 100 94 94 72 74 70 60 57 65 76 82 82 77 69 56 41 39 37 39 43 42 36 41 40
16 21 23 19 19 17 16 25 46 44 64 72 62 70 87 92 99 100 100 100 100 100 100 100 95 84 82 70 64 83 82 67 62 62 68 76 82 77 63 45 40 40 39 41 44 44 36 38 39
18 23 19 14 15 17 16 18 48 55 52 57 63 68 95 96 98 99 99 100 100 100 100 92 90 89 76 67 50 66 82 68 62 53 52 52 54 55 54 41 40 42 42 43 44 45 41 42 45
15 19 14 13 13 14 17 51 55 70 71 59 70 85 87 95 97 99 100 100 100 100 100 94 87 75 63 79 84 77 69 61 55 46 46 54 46 48 45 44 44 45 44 45 46 48 52 56 50
16 13 12 13 17 16 46 50 69 73 86 79 91 88 89 94 96 98 100 100 100 100 100 97 86 78 82 66 55 54 56 52 52 66 55 59 51 41 43 44 46 46 46 46 47 52 59 55 49
15 13 14 13 17 33 44 57 68 63 76 78 80 87 92 93 96 100 100 100 100 100 100 91 86 84 64 44 38 49 61 55 58 62 57 57 55 47 43 44 46 47 51 49 51 61 57 54 47
16 15 14 13 21 34 44 60 50 64 68 73 72 85 88 92 95 100 100 100 100 100 100 96 87 80 73 79 67 65 64 61 64 62 59 58 57 54 47 54 56 54 56 54 59 57 55 56 49
19 21 16 14 20 46 46 50 51 63 52 72 83 78 86 89 93 97 99 100 99 100 100 100 91 86 82 59 50 50 49 63 61 50 55 61 57 55 61 60 62 61 62 60 57 56 57 56 49
22 21 24 16 25 40 38 58 42 49 51 78 80 84 88 89 86 96 95 98 100 100 90 91 77 75 61 57 74 72 69 50 43 42 52 59 56 59 57 60 61 61 60 58 56 57 57 53 47
27 30 24 18 34 44 50 74 43 52 51 68 78 81 78 83 85 93 92 98 100 100 97 78 77 72 67 81 79 63 56 51 36 54 60 57 57 63 56 61 61 61 59 58 58 59 58 56 48
31 26 20 30 24 38 62 64 52 53 59 63 69 82 82 85 86 92 94 96 96 97 100 100 97 82 91 83 72 56 46 54 50 49 39 53 48 56 65 62 66 65 61 60 61 61 60 56 45
22 20 18 17 22 25 53 56 56 59 66 62 63 77 77 74 73 88 91 93 93 92 85 95 94 81 69 74 76 64 63 60 46 36 42 46 52 58 65 69 70 70 67 64 63 63 59 53 45
23 20 20 21 20 29 48 58 58 62 68 50 58 66 66 68 70 72 82 88 88 92 85 87 85 71 70 87 58 54 57 54 60 52 58 55 59 63 67 67 72 73 72 67 65 64 59 54 44
21 20 22 24 21 21 21 63 62 52 52 53 50 53 58 67 70 67 76 78 78 82 78 76 75 73 64 80 68 54 53 70 57 57 54 54 51 61 67 71 73 76 78 70 68 65 61 54 50
22 17 21 25 24 30 21 38 56 50 59 59 42 50 52 68 62 60 67 72 71 71 72 62 65 66 66 67 74 65 76 70 60 53 54 53 56 67 70 70 70 75 77 76 71 67 63 58 52
21 21 22 25 30 33 29 38 29 46 60 62 46 49 46 62 62 58 56 64 66 68 69 71 62 62 63 65 62 73 81 67 56 49 45 51 59 61 64 65 65 75 77 77 76 68 65 60 58
19 22 24 26 33 50 32 34 38 33 32 40 35 38 44 46 60 58 54 55 58 65 71 72 72 72 72 64 71 83 80 69 53 50 46 54 59 65 74 71 71 75 79 80 76 70 68 65 63
22 26 50 70 62 62 36 35 40 30 29 28 30 34 36 42 52 58 58 58 56 58 65 68 70 70 70 69 67 78 67 62 60 52 50 52 60 68 74 74 81 82 82 81 78 74 70 70 69
28 30 64 73 86 67 44 43 31 24 24 21 22 26 30 35 43 55 54 54 55 56 57 62 63 63 64 66 68 71 65 56 61 53 65 58 62 64 63 77 85 86 84 83 80 76 67 67 64
27 35 31 63 67 77 56 39 25 22 18 14 15 17 30 32 33 40 46 47 45 50 51 58 58 58 58 60 67 64 54 66 63 65 70 63 64 67 63 58 70 89 86 84 83 73 75 69 68
22 24 37 56 77 96 48 45 40 33 20 14 13 17 22 28 31 33 35 39 41 44 47 54 56 59 58 57 63 63 58 70 71 72 70 74 80 76 75 65 73 88 87 84 81 82 70 70 73
29 29 30 42 59 64 59 49 41 25 22 17 17 19 22 27 27 38 35 34 35 36 44 54 56 62 60 57 60 67 71 69 66 56 80 81 84 84 90 89 89 88 88 86 83 70 71 77 80
22 28 33 66 53 64 76 57 26 25 22 23 19 18 19 30 28 28 33 35 36 35 42 50 62 65 65 58 60 69 71 72 77 78 85 88 83 89 93 95 93 91 90 87 76 74 77 74 80